Race Results for
2012 Sea Otter Classic- MOUNTAIN BIKE
Monterey, CA
(Event Information)
Cross Country on 04/22/2012

Note: Ranking points are NOT upgrade points. An explanation of ranking points can be found here.


Men - Juniors - 13-14

 Place Points NameCity, StateTime USAC #BibTeam
1 SEAN MCELROY   Palmdale, CA1:10:10.56 331752  2454 TEAM SPECIALIZED RACING JR.
1 ABIGAIL YOUNGWERTH   Boise, ID1:34:40.23 356410  2483 BYRDS
2 SEAN BELL   1:11:13.81  1338 
2 MCKENZIE FERRY   El Dorado Hills, CA1:56:48.28 338052  2499 Singletrack Racing Development
3 MATTEO JORGENSON   Boise, ID1:11:22.70 266037  1342 BYRDS (Boise Young Rider Dev Squad)
3 SOPHIA FEDERICO   2:58:09.61  1889 
4 JAMES GOODIN   El Dorado Hills, CA1:12:46.48 335754  1340 
5 JAKE YACKLE   Reno, NV1:13:04.06 307192  1357 Yackle Brothers Racing
6 BO KNICKMAN   Newbury Park, CA1:16:27.52 316296  1343 Breakaway from Cancer Masters
7 NYE YACKLE   Reno, NV1:17:57.82 307201  1358 Yackle Brothers Racing
8 NATHAN JACKSON   1:18:43.03  1991 UNIVERSAL CYCLES
9 COLE AVERY   Thousand Oaks, CA1:19:11.70 281632  1336 Fast Friday
10 NELSON BEDIENT   Incline Village, NV1:19:53.98 354192  1337 
11 LIAM RUFF   Camptonville, CA1:21:43.27 361599  1352 
12 GRIFFIN SMUTS   Bozeman, MT1:23:45.66 351862  1355 
13 CLAY PUCKETT   1:25:28.40  1350 
14 ALEC MILLER   Nampa, ID1:26:18.60 297927  1348 BYRDS (Boise Young Rider Dev Squad)
15 BURKE KENNEDY   1:26:26.30  2019 
16 COLE SUTTON   Shingle Springs, CA1:28:34.38 336696  1356 
17 JACK ALESSI   Boise, ID1:32:41.73 329868  1334 BYRDS (Boise Young Rider Dev Squad)
18 CODY SCHWARTZ   Shingle Springs, CA1:34:12.22 359716  1353 
19 TRAVIS ALLEN   Mill Valley, CA1:35:00.66 319356  2034 UNATTCHED
20 GIANNI LAMPERTI   Sebastopol, CA1:35:59.56 355260  2338 
21 OLIVER LAWRENCE   1:37:23.67  1346 
22 JAKE BOWLES   1:38:04.50  1339 
23 PATRICK SMITH   1:39:04.73  1354 
24 DYLAN ARNDT   Ben Lomond, CA1:39:15.83 374496  1335 
25 NATHAN KOHL   Cameron Park, CA1:40:13.58 357271  1345 Kinetic Cycles/GBI
26 MATTHEW KOEN   Belvedere Tiburon, CA1:47:50.01 379171  1344 
27 CALVIN HERSEY   Novato, CA1:58:37.31 303353  2095 Team Swift
28 JAMES MCCARTY   Orangevale, CA2:14:38.11 107232  1347 
29 RAFAEL ROMERO   2:21:23.87  2094 
30 JORDAN TROY   2:39:46.55  2010 
31 ERIC OLSON   3:25:00.00  1349 

Men - Cat 2 - Clydesdale

 Place Points NameCity, StateTime USAC #BibTeam
1 NATE PIERCE   Redwood City, CA1:34:45.46 28134  1248 
2 JASON CRUSER   Walnutcreek, CA1:34:51.71 287526  1233 Kovarus/Wells Fargo Racing Team
3 STEVE ROTHENBERG   Fair Oaks, CA1:43:06.23 319770  2495 TEAM CCP
4 JUSTIN CAMPBELL   Pensacola, FL1:44:05.04 248885  2101 
5 GREG KARATHANAS   Simi Valley, CA1:46:37.25 218088  1243 Fast Friday
6 EDUARD BURT   1:47:32.63  1229 
7 DEREK LAURITZEN   San Luis Obispo, CA1:48:06.64 294022  1244 
8 PAUL HORENBERGER   Santa Barbara, CA1:48:19.46 129478  1239 
9 KEITH WILSON   1:49:18.90  1253 
10 JAMES CLARK   1:51:14.00  1231 
11 JEREMY MALDONADO   Rancho Cucamonga, CA1:53:16.22 279284  1245 Team Velosport Club
12 DAN STERN   Solana Beach, CA1:53:32.45 253342  1249 
13 NOEL TABOR   Lamesa, CA1:54:51.35 308490  1251 ACQUA AL 2/SDBC
14 TONY GAMBERUTTI   1:57:14.26  2481 ORCUTT CUTTERS
15 DAVID ALDEN-ST.PIERRE   1:57:44.83  1227 
16 GARY NAGLE   Reno, NV1:59:42.59 302983  1246 Nevada Cycling
17 TIMM HOYT   2:02:40.82  1240 
18 CHRISTOPHER STEWART   2:02:54.03  1250 
19 BRIAN COMBS   2:05:32.60  1232 
20 EDWARD CRUZ   Penn Valley, CA2:06:06.79 239696  1234 
21 WARREN JOHNSON   2:22:15.29  1242 

Men - Cat 2 - Single Speed

 Place Points NameCity, StateTime USAC #BibTeam
1 STEVEN CLIPPERTON   1:34:41.54  685 
2 BRIAN NEARY   1:36:43.22  705 
3 DENNIS BLOCK   1:37:12.12  680 
4 CHRIS LATURA   1:37:40.53  702 
5 CARL PRIMAVERA   Santa Cruz, CA1:40:50.24 365129  708 
6 MICHAEL INGLIS   Lakewood, CO1:42:22.26 17376  696 
7 TIMOTHY TAYLOR   1:42:22.77  717 
8 BRYCE DUPRIEST   Rancho Cucamonga 1:42:37.16 375192  690 
9 RICH HUFFORD   Granite Bay, CA1:43:11.47 365212  695 Victory Velo Racing
10 GREGORY CELENTANO   Castaic, CA1:43:42.49 302657  684 Santa Clarita Velo
11 MICHAEL LODOEN   Portola Valley, CA1:44:34.19 301169  703 
12 JUSTIN HINTZ   Sacramento, CA1:45:37.03 368842  880 
13 MIKE UPCHURCH   Sacramento, CA1:45:43.60 283109  719 Team Mad Cat
14 GRAHAM FAULKNOR   1:46:47.36  691 
15 KEVIN REGAN   Santa Rosa, CA1:47:59.26 258527  709 
16 JHORIC DE GUZMAN   1:48:04.28  686 
17 MIKE MACEDONIO   1:48:44.52  2013 BREAKAWAY
18 BRIAN ROLLINS   Lompoc, CA1:51:01.51 277555  711 
19 ROB JONES   1:51:45.27  698 
20 CHRISTIAN MANNSFELD   1:52:14.75  704 
21 MICHAEL RIEPE   Cupertino, CA1:52:46.02 29854  710 
22 CONNOR PILAROWSKI   Kneeland, CA1:53:12.60 285157  1985 
23 JEFF SAWYER   Rocklin, CA1:53:17.51 220240  713 Victory Velo Racing
24 JERRY JAVIER   1:53:17.63  697 
25 JOE CARPENTER   San Jose, CA1:54:51.56 301276  682 Team Mad Cat
26 PAUL LABOSSIERE   San Jose, CA1:54:54.53 307381  701 
27 ADAM KIRKLAND   Santa Clara, CA1:55:25.24 303839  699 
28 JOHNNY STALLINGS   Los Gatos, CA1:55:56.39 141556  2444 DRAGON RACING
29 JOHN ALLAN   San Luis Obispo, CA1:56:00.29 289021  679 
30 JOHN SCHULTE   Livermore, CA1:56:39.60 242264  714 Taleo Racing
31 GREG SLACK   Los Gatos1:56:53.58 158063  715 
32 JORN OLIMPIADA   1:58:12.21  706 
33 ALI CEHRELI   Mountain View, CA1:59:51.55 255113  683 
34 THOMAS DEMEO   Los Gatos, CA2:00:04.57 9168  688 
35 WILLY DOMMEN   San Anselmo, CA2:02:26.90 198444  689 
36 CHAMBERLIN RYAN   2:03:51.19  712 
37 MIKE DAVENPORT   2:05:22.19  1134 
38 LAU ACKERMAN   Chico, CA2:05:51.42 218500  678 
39 MICHAEL FRONK   2:07:05.75  693 
40 ERICH TISNADO   2:08:18.60  718 
41 DEREK KUDA   Vacaville, CA2:24:21.11 175408  700 

Men - Cat 2 - Tandem

 Place Points NameCity, StateTime USAC #BibTeam
1 BOB AND SPENCE PETERSIEGEL   1:42:25.83  763 Above Category Racing
2 TEAM MARKS   1:46:44.45  1105 
3 TEAM DROWNE   1:55:27.89  2030 RAY
4 ERIC DOWNING   Piedmont, CA1:55:34.36 47813  2084 
5 TEAM FLETCHER   Vacaville, CA1:58:49.35 11849  2447 DAVIS BIKE CLUB
6 TEAM SWITCHBACK   2:00:51.26  2434 
7 TEAM GRIFFO   2:08:01.42  1138 
8 TEAM ABEL   2:10:11.08  937 
9 TEAM VANGILDER   Mission Viejo, CA2:11:49.29 138867  2344 TROUPE RACING CO.
10 TEAM RITTE   2:34:16.28  2016 RITTE RACING

Men - Cat 2 - Junior - 15-18

 Place Points NameCity, StateTime USAC #BibTeam
1 BRETT MAUR   El Dorado Hills, CA1:29:54.51 335626  734 Singletrack Racing Development
2 ALEX MEUCCI   Lithia, FL1:29:54.98 268812  736 
3 ALEX CHAMBERLIN   Danville, CA1:30:12.87 353582  722 
4 BRENT BURCHAM   Fallbrook, CA1:31:15.37 339012  721 
5 CLAYTON STONE   Anthem, AZ1:31:46.51 330752  748 AZ Devo
6 BEN SULITEANU   Stanford, CA1:31:51.35 356567  2106 
7 TOM FOXX   Felton, CA1:32:46.91 368122  727 Team Santa Cruz (SCCCC)
8 ZACHARY SKALET   Rocklin, CA1:33:03.59 335076  743 
9 AARON ALBOR   Orangevale, CA1:33:09.24 335944  720 Singletrack Racing Development
10 ANDERS NYSTROM   Boise, ID1:33:13.30 281627  739 BYRDS (Boise Young Rider Dev Squad)
11 PATRICK MURPHY   1:33:19.84  738 
12 LAIRD GRANT   1:33:35.82  2445 
13 DILLEN MAURER   Los Angeles, CA1:34:03.12 317704  2494 MONTROSE BIKE SHOP
14 TYLER O'BRIEN   1:34:49.51  740 
15 SPENCER RATHKAMP   Stevenson Ranch, CA1:34:54.83 351922  2412 GAERNE
16 MYLES LUCAS   Hollister, CA1:35:02.52 361776  733 
17 CHANCE TINER   Santa Cruz, CA1:35:42.52 304640  751 
18 Jonathan VanPatten   Folsom, CA1:35:46.08 334748  752 
19 AUBREY SMENTKOWSKI   Westminster, CA1:37:05.44 328030  744 Sho-air/Rock 'n Road
20 SETH FRANCIS   San Rafael, CA1:37:31.50 353546  728 National Interscholastic Cycling Association (NICA)
21 BOONE FLYNN   1:37:42.18  2350 
22 WILL HARPER   1:38:11.75  1376 
23 IAN WILKEY   Casa Grande, AZ1:38:20.67 353972  754 
24 MICHAEL GOSSETT   Murrieta, CA1:38:57.44 379254  729 Team Simple Green/Bike Religion
25 KYLE HEUERMAN   Pleasant Hill, CA1:39:46.62 352566  730 
26 NATHAN TARRY   El Dorado Hills, CA1:39:50.45 335724  750 
27 RONNY SWANGER   Fair Oaks, CA1:40:04.65 335806  749 
28 SPENCER LEHN   Roseville, CA1:41:20.38 335384  731 
29 DYLAN ELLIS   Fair Oaks, CA1:41:25.39 335800  724 Singletrack Racing Development
30 ZACH PERRIN   1:41:25.90  1994 
31 NICO APARICIO   1:42:30.81  2409 
32 SAM ROSENBERG   1:43:04.46  1400 
33 JOHN CURTIS   1:45:26.10  723 
34 CODY JUTOVSKY   Palm Desert1:46:00.23 382232  2418 BNG RIDERS
35 BRYCE LEWIS   Roseville, CA1:46:35.47 378268  732 Woodcreek High School Cycling Team
36 DILYN SHEBER   Oro Valley, AZ1:49:05.31 361232  742 AZ Devo
37 GRANT SNYDER   El Dorado Hills, CA1:49:14.63 335988  745 Singletrack Racing Development
38 AUSTIN MIDDLEBROOK   Sebastopol1:49:53.33 378347  737 
39 TRAVIS SPRUITENBURG   El Dorado Hills, CA1:51:33.89 335734  746 
40 Daniel Folwarkow   El Dorado Hills, CA1:51:33.94 335920  725 
41 Ben Fox-Shapiro   1:53:01.92  726 
42 NATHAN PHERIGO   Rancho Cucamonga, CA1:53:41.40 274012  741 Southern California Velo
43 GRIFFIN SPURR   Greenbrae, CA1:53:57.79 375176  747 
44 GRIFFIN WIGERT   Petaluma, CA1:56:37.06 272280  753 Team Swift
45 MATTHEW VITALE   Riverside, CA2:14:08.40 355292  2108 
46 BRADLEY MERRY   Tucson, AZ2:14:56.17 224113  735 Saguaro Velo

Men - Cat 2 - Senior - 19-24

 Place Points NameCity, StateTime USAC #BibTeam
1 JORDAN ANDERSON   1:29:18.52  755 
2 SEAN PUTNAM   1:31:21.67  765 
3 SHANE BOYLE   Danville, CA1:31:48.26 360036  758 NRL Racing Development Team
4 LEVI BLOCK   Lompoc, CA1:33:10.56 379590  757 
5 SHANE STILES   1:35:11.20  768 
6 CHRIS ROOT   1:35:35.58  766 
7 ROCKY CASTRO   1:36:08.99  2449 
8 TYLOR GIGER   Salinas, CA1:37:53.12 248492  761 VOS Racing
9 DYLAN STOMPE   Novato, CA1:38:08.83 241777  770 Santa Clarita Velo
10 ERIK BRAKEBILL   Fair Oaks, CA1:42:41.80 317788  759 
11 DUSTIN DRAPER   Ventura, CA1:44:07.46 285332  760 
12 NATHANIEL POWELL   Antelope, CA1:48:21.50 288682  764 
13 DALLIN DAVIDSON   Tustin, CA1:50:55.13 278050  2347 MTB PRO Team: Sho-Air/Specialized
14 JAKE MORITZ   San Francisco, CA1:51:01.76 332338  762 
15 JEREMIAH NEWMAN   Nevada City, CA1:55:07.36 298604  2079 

Men - Cat 2 - Senior - 25-29

 Place Points NameCity, StateTime USAC #BibTeam
1 JOHN EPPEN   Spearfish, SD1:24:11.44 252741  775 
2 JEFF MALNICK   Monterey, CA1:27:27.18 260198  787 Above Category Racing
3 TROY TEMPLIN   Burbank, CA1:27:56.63 366547  2005 H&S BICYCLES
4 RYAN GRIFFITH   Boulder, CO1:28:58.31 217548  777 
5 JORDAN SMOKE   San Rafael, CA1:29:53.93 378924  800 
6 BRODIE STRINGER   Danville1:29:55.86 370456  805 
7 KEVIN HERRON   Folsom, CA1:33:10.60 347570  780 NorCal Hub Racing
8 NATHAN HELMING   Larkspur, CA1:33:58.13 273813  778 
9 CHARLES STRAUSS   1:34:33.89  804 
10 KENNY ORMONDE   Diamond Bar, CA1:35:51.86 362062  2006 INCYCLE/SCVELO
11 SERGEI SHEVLYAGIN   1:35:52.01  799 
12 JAMES LALONDE   Chicago, IL1:35:54.50 273642  783 
13 BRIAN NEWMAN   Belmont, CA1:37:46.16 375965  792 
14 Kyle Taylor   Santa Cruz, CA1:37:53.71 328118  807 
15 JUSTIN HERD   Denver, CO1:38:11.32 296021  779 
16 WILL KING   1:38:18.57  782 
17 Jeffrey Stern   Santa Barbara, CA1:38:58.27 356604  803 
18 MARK FRY   Baton Rouge La1:39:15.54 331420  776 
19 MICHAEL MOTTOLA   1:39:52.08  791 
20 BRENT WOOD   1:40:03.24  811 
21 SETH LEIDY   Berkeley, CA1:42:07.79 290798  784 Berkeley Bicycle Club (BBC)
22 DYLAN RINALDI   Ross, CA1:42:43.28 213969  797 
23 ADRIAN LUIS   San Francisco, CA1:43:34.75 158758  300 
24 ROBERT SPIES   San Francisco, CA1:43:41.30 365577  802 
25 CHARLIE JOY   1:45:13.71  781 
26 CHRISTOPHER ATKINSON   1:45:51.41  771 
27 CASEY WARCKEN   1:47:04.24  808 
28 BRIAN BUSKIRK   1:47:29.08  773 
29 SCOTT STROOT   San Luis Obispo, CA1:47:36.74 181092  806 
30 RYLAND WOLFF BAKER   Santa Cruz, CA1:48:14.34 238009  810 
31 SEAN LEWIS   Bend, OR1:51:44.79 330742  785 
32 JASON SMYTH   1:56:41.21  801 
33 MATTHEW BRETT   1:56:46.72  772 
34 MIKE CURTICE   1:57:14.38  774 
35 BRAD O'DONNELL   1:58:04.13  794 
36 CHEYNE MCKEEVER   Huntington Beach , CA2:01:40.26 262304  790 
37 DANIEL MACROSTIE   Chico, CA2:03:18.20 251210  786 
38 CARL RUSSELL   2:03:46.32  798 
39 JOAQUIN QUINTANA   2:11:32.11  795 
40 ROBERTO QUINTANA   Sacramento, CA2:15:07.87 117880  796 
41 JOSE LOPEZ   2:24:57.09  2054 
42 CHRISTOPHER MARINO   2:47:30.06  788 
43 JARED MARINO   2:47:30.15  789 

Men - Cat 2 - Masters - 30-32

 Place Points NameCity, StateTime USAC #BibTeam
1 DOUG BAKER   1:28:18.37  813 
2 JAMES NORTON   Mill Valley, CA1:30:36.69 358905  831 
3 COREY LUCE   Spreckels, CA1:33:21.08 112720  827 
4 BRANDON HAGY   San Clemente1:34:18.90 359210  822 
5 DENNIS PHAM   San Jose, CA1:34:37.19 368308  832 Quadzilla Racing
6 DARCIO DE PAULA   1:35:34.46  816 
7 MATTHIAS SCHMID   1:36:27.08  1989 BMC
8 ANTONIO ZAMORA   Berwyn, IL1:37:12.83 250426  838 
9 NIK GOODELL   Ft Worth, TX1:37:58.34 306808  820 
10 SAMUEL GUZMAN   1:39:59.85  821 
11 NICK VAN DER LINDEN   1:41:31.90  836 
12 MICHAEL GAMACHE   1:41:37.63  819 
13 BEN FLOYD   Statesboro, GA1:42:12.79 258913  818 
14 PAUL TRINKKELLER   Canyon Country, CA1:42:16.01 273315  835 
15 KEITH COWELL   1:42:19.10  1969 
16 SEAN ROBMAN   Pasadena, CA1:44:07.67 275628  833 PAA/REMAX
17 RYAN MILLER   1:45:56.83  829 
18 TREY JARNO   1:49:35.56  2046 
19 JAY KWAN   Oceanside, CA1:49:50.02 269231  825 The TEAM
20 CHAD CHIPARO   1:56:46.78  1455 
21 IVAN SMILJANIC   1:59:32.68  2083 
22 JOHN HOWAT   Lawrence Ks2:07:47.34 143160  1465 
23 SEAN HALPENNY   2:08:24.56  823 
24 GAUDENCIO BOLANOS   2:09:02.62  2032 
25 IAN MEDLOCK   2:09:52.15  828 
26 JACQUES DEKIRMENJIAN   2:18:37.24  817 
27 STEVEN SCHIEDEL   2:18:44.99  834 
28 ARMANDO MURILLO   2:23:52.23  830 
29 DAN ROMPF   2:28:42.26  2102 
30 TREVOR WALLACE   Blacksburg, VA2:40:41.73 114999  837 
31 AUSTIN CURNOW   San Diego, CA2:41:32.97 352522  815 
32 RYAN AYRES   3:02:10.65  812 

Men - Cat 2 - Masters - 33-34

 Place Points NameCity, StateTime USAC #BibTeam
1 RYAN GIBSON   1:29:07.41  845 
2 FRANCO CAMPILONGO   Menlo Park, CA1:31:28.72 261918  841 SquadraSF
3 BRIAN SLAMES   1:34:28.18  856 
4 JAMES PASS   Bakersfield, CA1:35:05.33 308110  853 
5 BRYAN BOS   Naperville, IL1:35:18.41 94991  840 
6 MICHAEL SCANLON   San Francisco, CA1:37:57.54 92506  855 
7 ANDREW WILSON   1:38:54.23  858 
8 SCOTT LESAN   1:43:19.62  849 
9 VINCENT PURCELL   1:45:15.82  854 
10 Jason Ziegenhirt   Grass Valley, CA1:47:13.63 284690  860 
11 FORREST KERR   1:50:33.62  847 
12 JUSTIN CILEO   Edmond, OK1:51:54.71 144309  843 
13 JOSHUA BIETZ   1:52:33.67  839 
14 JOE CHEUNG   1:55:19.80  842 
15 NATHAN GIBSON   Seattle, WA1:58:13.65 219636  844 
16 MARTIN C ZARATE   2:03:28.97  859 
17 ROGELIO OLVERA   2:10:19.71  851 
18 BRENT PANAS   2:23:25.71  852 
19 JUDAH NGUYEN   2:26:44.97  850 

Men - Cat 2 - Masters - 35-37

 Place Points NameCity, StateTime USAC #BibTeam
1 KIM MIDSTOKKE   Dover, ID1:30:27.43 171989  886 
2 GREG OSTRIN   Pacific Grove, CA1:32:42.89 264765  890 Naval Postgraduate School
3 RETO MUELLER   San Francisco, CA1:33:34.99 331974  887 Peninsula Velo Racing
4 AARON DALRYMPLE   Redondo Beach, CA1:34:57.32 322836  872 Cynergy Cycles Racing
5 SEAN CHENEY   1:35:12.26  869 
6 LUKE WYNEN   Mammoth Lakes, CA1:36:18.47 378487  2457 ONEWAY CYCLING
7 ADRIAN TAMBLIN   Santa Rosa, CA1:36:30.80 296039  896 
8 JAMES BENDER   1:38:50.13  863 
9 TYLER HAHN   1:40:50.10  879 
10 THERAL MACKEY   San Mateo, CA1:42:52.51 209724  884 
11 JOHN REINAN   Lakeville, MN1:43:05.95 362137  894 
12 DAMON FERRARI   1:43:45.70  876 
13 MICHAEL DO COUTO   Salinas, CA1:45:12.00 366275  874 
14 AMADOR VARGAS   Palo Alto, CA1:47:49.59 272589  898 
15 TRAVIS GOODRICH   1:50:47.62  877 
16 FABIAN OSORIO   1:51:26.78  889 
17 GREG BALES   1:52:00.45  862 
18 ALFREDO ESCALANTE   1:54:49.19  875 
19 EVER PORTILLO   1:55:08.14  893 
20 KEITH PADGETT   1:55:35.32  891 
21 JOSH SPRAGUE   1:55:37.63  895 
22 RANDY CARDONA   1:57:08.88  866 
23 ALEX GOLDHAMMER   1:59:03.36  1238 
24 JAIME ADAME   Chico, CA2:00:09.18 276648  861 
25 EDWARD DEAN   San Jose, CA2:01:44.21 244679  873 
26 DOUG DIMATTIA   2:02:02.79  2092 
27 CHRISTOPHER JABLONSKI   2:05:09.38  881 
28 ROGER JACOBS   2:05:53.51  882 
29 EPHRAIM SCHWARTZ   2:08:37.76  2044 
30 CHAD WILSON   2:10:22.17  900 
31 THADIUS NEWTON   2:11:39.37  888 
32 KEN CASEY   San Rafael, CA2:14:25.83 377851  867 
33 JOE KWONG   Milpitas, CA2:15:15.06 353118  883 
34 DALE PANKEY   2:16:15.57  892 
35 SEAN CHAFFIN   2:17:41.37  868 
36 CRAIG PATERSON   2:27:01.00  2091 
37 CHRIS CHIBILYAN   2:34:09.23  870 
38 CHUCK BECKER   San Francisco, CA2:39:30.06 256606  1492 
39 GREG VIERRA   2:39:59.59  899 
40 BRANDON BURKE   2:45:16.59  865 
41 ALAN TING   Austin, TX3:23:30.30 202659  897 

Men - Cat 2 - Masters - 38-39

 Place Points NameCity, StateTime USAC #BibTeam
1 JULLIOT VINCENT   1:27:07.62  2339 VELO TOUT TERRAIN
2 RICH GASAWAY   1:32:39.56  915 
3 JAY LAPLANTE   1:33:35.09  921 
4 JEFFREY BEAUMONT   Simi Valley, CA1:34:11.42 318638  1491 Fast Friday
5 HENRY WU   San Francisco, CA1:38:11.76 270193  936 
6 DAN ACOSTA   1:38:16.25  901 
7 CHRIS WAUGH   San Francisco, CA1:38:49.08 37417  934 
8 JOHN BARBICAS   Sanfrancisco, CA1:38:52.29 309907  902 Fusion Cycling Team
9 ORION CORCILIUS   Cloverdale, CA1:39:36.82 194831  909 
10 GARRETT BROUGHTON   Fairfield, CA1:41:08.18 185153  906 
11 AARON OBELLEIRO   Dixon, CA1:41:15.26 264228  924 Grass Roots Racing pb Velo Wrench
12 JOSHUA WALKER   1:42:12.78  933 
13 TYLER NEWBY   Mill Valley, CA1:43:37.52 242268  922 
14 BILL WILDENBERG   Boulder, CO1:45:06.19 62920  2086 
15 GEOFF ECKERT   1:46:04.84  912 
16 SETH FRANKEL   1:46:27.30  914 
17 ROBERT PETERS   1:47:02.50  926 
18 JOHN DEAGRO   1:49:22.48  911 
19 GILES GOODWIN   1:51:23.16  917 
20 OSIRIS LOWE   1:53:16.31  2060 
21 JASON PAPEDIS   Fremont, CA1:55:05.29 100822  925 
22 GARY LAND   Santa Rosa, CA1:55:24.04 181093  920 
23 STEVEN NIETO   1:56:43.21  923 
24 TIM BEI   1:59:39.79  903 
25 JON BRANDT   2:00:26.63  905 
26 ERIC PIZIALI   2:02:18.36  928 
27 JAMES PHILLIPS   2:02:44.13  927 
28 JORDY BERSON   San Francisco, CA2:07:01.97 43895  904 
29 MICHAEL WILLIAMS   2:15:44.86  935 
30 DAN GEISSBUHLER   2:17:05.23  916 

Men - Cat 2 - Masters - 40-42

 Place Points NameCity, StateTime USAC #BibTeam
1 TROY OLSON   1:30:52.62  2482 HABITAT /TMBA
2 JASON DAGGETT   1:34:05.36  2426 
3 TOM ZURAWSKI   1:34:18.09  999 
4 JAMES KOEHN   Austin, TX1:34:40.36 272648  965 Bicycle Sport Shop Mountain Bike Team
5 KEVIN MCHUGH   Los Gatos, CA1:36:11.46 23548  972 
6 DIRK DE BRUYKER   San Jose, CA1:36:43.90 207700  947 
7 PAUL MARSHALL   1:37:01.34  970 
8 BRAD MENNA   Chicago, IL1:37:30.19 69518  2039 SRAM
9 STEVE WHITE   1:37:38.46  996 
10 RED FELIX   Antioch, CA1:38:35.42 158295  950 
11 SCOTT HARPER   1:38:47.01  2031 
12 JEREMY REGENBOGEN   San Francisco, CA1:38:47.34 367569  983 
13 RICHARD KIRBY   1:39:20.16  964 
14 ERIC JEPSON   1:39:21.95  961 
15 Dean Dealy   Santa Cruz, CA1:39:34.15 146319  948 
16 CHRIS COBLE   Concord, CA1:39:48.96 254754  946 Taleo Racing
17 KEVIN CHAMBERS   1:39:55.09  944 
18 MAX FLAXMAN   1:39:58.06  951 
19 KEVIN JACKSON   1:39:58.46  960 
20 SACHA PETANCIC   Dana Point, CA1:40:09.45 158110  2051 Cynergy Cycles-MIssing Link Coaching
21 PAT WHITE   Aurora, IL1:40:18.85 307069  995 
22 JASON KENT   Walnut Creek, CA1:40:40.87 41826  963 Tieni Duro Junior Cycling Team
23 JULIAN BILL   San Francisco, CA1:42:23.46 259690  942 
24 STEWART SPEED   1:43:12.32  987 
25 STUART MACLENNAN   1:43:30.11  968 
26 ANDREW GRAYSON   Chico, CA1:43:32.82 777  954 
27 ROBERT MURPHY   1:43:53.31  976 
28 CHRIS ARTERBURN   Broomfield, CO1:43:56.18 78478  939 
29 ALLEN YIP   Alameda, CA1:43:57.04 237781  998 
30 BRETT KELLEY   1:44:28.34  962 
31 BRAD BASFORD   Sanjose, CA1:44:40.41 308626  940 
32 STAR STEVENSON   Santa Rosa, CA1:45:14.34 236074  989 
33 CARY SHALES   Reno, NV1:45:16.25 164548  986 
34 RUY LOPEZ   La Puente, CA1:45:24.93 345268  967 
35 JARROD WYRICK   Granite Bay, CA1:46:06.17 109262  997 NorCal Hub Racing
36 ADRIAN TIESLAU   Kings Beach, CA1:47:19.60 271946  2055 Reno Wheelmen
37 SEAN MELCHIONDA   Mill Valley, CA1:47:22.95 68261  973 Divine Electric Norcal
38 CHARLES HIMES   Santa Rosa, CA1:47:26.83 16249  958 Windsor Bicycle Center Cycling Team
39 ERIC CLAUSS   San Francisco, CA1:47:31.39 198040  945 SquadraSF
40 ISAAC POTTER   Hayward, CA1:47:34.33 304596  982 
41 ALLAN SCHAFFER   1:48:05.43  985 
42 MIKE GRIFALL   1:48:26.90  955 
43 JASON MORVAY   Santa Cruz , CA1:49:38.16 25201  975 
44 SCOTT ROBINSON   1:49:52.55  984 
45 GIYORA STAHI   1:53:21.89  988 
46 TOM VERBEURE   1:54:05.50  993 
47 EDWARD TAISIPIC   1:54:08.02  990 
48 RICHARD HOWE   1:55:09.50  959 
49 MAX PARTL   1:55:19.57  980 
50 Menko Johnson   Redwood City, CA1:55:21.63 18004  974 
51 BRYAN GERTZ   Redwood City, CA1:56:59.58 180299  2484 
52 CANNON FAASSE   1:58:53.45  949 
53 KRIS PEDERSON   1:59:36.75  981 
54 CHRISTOPHER BAUTISTA   1:59:41.21  941 
55 MATT BRIEL   2:01:04.06  943 
56 CHAD MARTIN   Sardinia, NY2:02:27.97 153674  971 
57 ANTHONY GEIST   2:02:32.13  953 
58 JAIME ARANA   2:02:33.18  938 
59 HENRY LANKILA   2:10:10.17  966 
60 ALEXANDER WAI   2:13:01.16  994 
61 MATTHEW ROSE   2:15:09.92  1586 
62 JEFF BAUERMEISTER   2:15:12.98  2022 
63 MATT HANSON   2:16:17.73  1570 
64 TIN WAY   2:18:16.98  2097 
65 JOHN TYMO   Pleasant Hill, CA2:24:50.31 261733  991 
66 MARK FORBES   Boston, MA2:31:43.01 75982  952 
67 MARK NAYLOR   2:55:14.91  977 
68 STUART MAGER   3:24:45.60  969 

Men - Cat 2 - Masters - 43-44

 Place Points NameCity, StateTime USAC #BibTeam
1 ROBERT HOWELLS   1:33:12.06  1011 
2 KEVIN HUSSEY   1:39:00.81  1012 
3 GILES HEALEY   Carmel, CA1:39:31.21 158386  2093 
4 PAUL MARAIS   Mill Valley, CA1:40:03.67 325122  1018 
5 CHAD SMART   Corona, CA1:40:22.52 291314  1034 Team Velosport Club
6 SCOTT PENN   1:41:15.69  1026 
7 TIM BAIR   Roseville, CA1:42:27.35 257805  1001 
8 BRIAN MARTINEZ   1:42:40.49  501 
9 JEB BROWN   Paso Robles, CA1:43:19.45 365922  1003 
10 DUSTIN SLACK   Santa Cruz, CA1:43:22.57 168085  1033 
11 SCOTT MCKNIGHT   1:45:24.40  1021 
12 MIKE MCCULLOUGH   Auburn, CA1:45:28.27 56771  1020 
13 ARTHUR RODRIGUEZ   1:45:29.28  1030 
14 ANTHONY MILLER   1:46:26.81  1024 
15 MICHAEL HARTZELL   1:47:04.60  1009 
16 SEAN HOLIFIELD   Brentwood, CA1:47:48.03 273446  1010 
17 GREGORY BURNETT   1:48:30.60  1004 
18 DON HART   Soquel, CA1:48:38.57 159870  1008 
19 SCOTT BAKER   1:49:31.29  1002 
20 BRIAN KADAN   San Carlos, CA1:51:05.08 262090  1015 
21 TODD LUMAN   1:51:09.50  2035 AMGEN CYCLING
22 BARNABY LEE   Santa Cruz, CA1:51:56.62 94779  1016 
23 SEAN FITZPATRICK   1:57:01.57  1006 
24 ED FISCHER   1:57:05.20  2466 CAMAS BIKE AND SPORT
25 JERRY SANDERS   Glendale, CA1:58:07.58 232326  1031 PAA/REMAX
26 RICK REID   1:59:04.16  1028 
27 PAUL THOMPSON   1:59:21.97  1036 
28 KJELD CHRISTENSEN   Scotts Valley, CA2:00:00.45 6842  1005 
29 BENZ MICHAEL   2:00:15.30  1023 
30 JASON VAGIM   Visalia, CA2:01:42.01 334674  1037 Youngs/Sierra Bicycle Werks
31 MATT VARGAS   Gualala, CA2:02:00.46 123882  1038 
32 GEORGE INGERSON   2:03:01.47  1013 
33 ARISTOTLE CABAUATAN   Santa Clara, CA2:03:33.53 351906  1986 
34 DAVID REID   Campbell, CA2:03:53.43 250549  2017 KLUNKER
35 KEVIN MCANERNEY   Tahoe City, CA2:07:48.28 164463  1019 
36 SCOTT FORBES   2:12:18.86  2424 
37 BRIAN JAMESON   2:14:06.56  2001 DYANMIC
38 ERIC STERN   2:16:43.12  1035 
39 JUNIOR LLANES   2:34:33.27  1017 

Men - Cat 2 - Masters - 45-47

 Place Points NameCity, StateTime USAC #BibTeam
1 DERECK BUTTERFIELD   Rialto, CA1:34:57.07 5708  1043 
2 DAVE YUNG   Van Nuys, CA1:35:08.07 183815  2443 FAST FRIDAY
3 BOB AGAN   1:36:45.10  1039 
4 DAVID LEE TURNER   1:37:51.84  1082 
5 STACEY SELL   1:38:44.65  1073 
6 DAVID TRIPIER   Los Gatos, CA1:39:54.03 144645  1080 CoreTechs Cycling Team
7 JOE NARCISO   Pleasanton, CA1:39:55.75 304805  537 
8 DICK VAN DER LUIT   San Jose, CA1:40:26.33 251904  1083 
9 THOMAS SMUTS   Santa Monica, CA1:41:03.79 298842  1076 
10 KRISTOFER MILLS   1:41:14.07  1063 
11 DOUGLAS MACCREADY   Nipomo, CA1:42:09.75 201660  1058 ArtsCyclery.com/Wild Horse Wines
12 JOSE LUIS HERNANDEZ   1:42:31.37  1052 
13 MARCELO QUIROZ   Fremont, CA1:42:32.36 242232  1067 NRL Racing Development Team
14 GRADY MCLEOD   Orangevale, CA1:43:20.91 23715  1060 
15 TODD HARRIS   1:46:58.06  1050 
16 RICK SNYDER   1:47:03.82  1077 
17 PAUL MIERS   Reno, NV1:47:26.59 111682  1061 Reno Wheelmen
18 LAURIE MILLER   1:48:15.04  1062 
19 GAVIN BURKE   1:48:58.12  2323 BEAR VALLEY BIKES
20 KEVIN HINTON   Culver City, CA1:49:12.18 290170  2450 VELOWORX/BMC
21 BOB PACHECO   1:50:10.50  1066 
22 JOHN MONROE   Beacon, NY1:51:32.43 308691  1065 
23 JOHN RUGGERI   Sebastopol , CA1:52:28.25 157258  1071 Windsor Bicycle Center Cycling Team
24 MICHAEL SCHALLER   Campbell, CA1:52:39.04 253585  1072 
25 JOHN HAWKINS   1:53:11.07  1051 
26 JOE DURNING   1:55:43.51  1047 
27 TREVOR TRUAX   1:56:08.86  1081 
28 DAVE MOELLER   1:58:54.16  1064 
29 DARIUS RIKE   2:01:09.37  1070 
30 SPENCER CURRY   2:03:07.52  1046 
31 BRYAN WATSON   San Francisco, CA2:03:32.38 189890  1086 
32 GUNNAR WALDMAN   Norwalk, CT2:05:18.30 347594  1085 
33 RICHARD THERON   2:05:25.34  1079 
34 MIKE TERRY   2:06:59.52  1078 
35 JUAN JUAREZ   2:07:20.50  1054 
36 JONATHAN HOLMES   Plainsboro, NJ2:10:05.00 134497  1053 
37 MICHAEL REXACH   2:10:10.02  1069 
38 JIM BROWN   Olympia, WA2:12:37.54 5083  2003 REVEL CONSULTING/RAD RACING NW
39 ROBERT FLEMING   Guilford, CT2:14:12.03 81476  1048 
40 MIKE WOLTERS   Claremore, OK2:15:01.09 46915  1087 
41 JACQUES SERRANO   Millbrae, CA2:15:43.10 144276  1074 
42 JONATHAN BARTLETT   2:19:45.07  1041 
43 KAM KHOJASTEH   2:21:17.17  1055 
44 JOHN KOSTELZ   2:31:30.96  1056 
45 LARRY ANDERSON   Decatur, GA2:34:22.95 68984  1040 
46 AARON GETTLE   2:37:03.26  1049 

Men - Cat 2 - Masters - 48-49

 Place Points NameCity, StateTime USAC #BibTeam
1 TOM COURTNEY   Kentfield, CA1:35:48.40 221053  1091 Whole Athlete
2 David Schaefer   Hayward, CA1:35:52.91 219605  1113 
3 ROSS TINLINE   San Carlos, CA1:36:04.65 35623  1118 Peninsula Velo Racing
4 MICHAEL MANN   1:40:48.12  1104 
5 ROB MATHEWS   Portola Valley, CA1:41:57.56 266286  1108 
6 CHUCK CLEMONS   1:43:42.73  1090 
7 ERIC WILKEY   Casa Grande, AZ1:44:47.98 140781  1121 
8 HOWARD SKALET   Rocklin, CA1:45:12.29 357280  1115 
9 ANDREW BUCKLEY   1:45:55.62  1088 
10 BRUCE MACGREGOR   Palo Alto, CA1:47:34.85 250257  1101 
11 DICKY HARRIS   1:49:30.43  1096 
12 SCOT WIGERT   Petaluma, CA1:49:47.26 46954  1120 Team Bici Sport
13 DAN LEE   1:51:14.31  1099 
14 PAUL MACKINLAY   Santa Cruz, CA1:51:45.41 42211  1102 
15 WALTER WALLACE   1:51:46.50  2015 
16 KEVIN MALDONADO   Windham, NY1:53:02.44 281855  1103 
17 ERIC OPPERMAN   1:54:07.00  2070 
18 DAVE HAYS   Roseville, CA1:54:21.50 311073  1097 
19 KENT SUTTON   1:54:39.14  1117 
20 RICK FERDINANDSEN   Fresno, CA1:58:33.84 304441  1094 Stevens Bicycle Racing
21 ZACHARY CARTER   Cameron Park, CA2:05:42.25 6352  1089 
22 RAY WILLIAMS   2:08:42.45  1122 
23 DAVID GRANT   2:10:25.32  1095 
24 LUKE SHENEFIELD   Pacific Grove, CA2:11:26.86 197006  1114 Team Roaring Mouse
25 CARLO LUCIA   2:16:41.77  1100 
26 DAVID FARIAS   2:17:06.30  1092 
27 JOHN ROBERTS   2:20:02.01  1112 
28 PAUL MOLENBERG   2:24:21.68  1109 
29 NAD KARIM   2:26:00.21  1098 
30 BRUCE SMITH   2:27:00.42  1116 
31 RUBEN MARTINEZ   Powell, OH3:03:44.28 300343  1107 

Men - Cat 2 - Masters - 50-52

 Place Points NameCity, StateTime USAC #BibTeam
1 DAN TURNER   1:35:32.70  1156 
2 MARK SHAW   1:35:42.21  1151 
3 Bradley Stompe   Novato, CA1:37:40.36 259689  587 
4 MIKE WARREN   1:38:15.03  1157 
5 GREG CARLTON   Walnut, CA1:39:25.52 176596  1132 Incycle
6 JIM VREEKE   1:39:27.49  2008 545 CREW
7 ZACK BEEKLER   Redwood City, CA1:39:33.22 249741  1129 Peninsula Velo Racing
8 WILLIAM JESSBERGER   Woodland Hills, CA1:41:29.99 379251  2045 
9 DAVE ANDERSEN   Santa Rosa, CA1:43:02.46 212463  1125 
10 JIM HAAGEN-SMIT   1:43:44.95  1139 
11 BUZ FULTON   Newburypark, CA1:44:26.55 306937  1137 
12 BRUCE ARMSTRONG   1:44:43.95  1126 
13 MIKE CAREY   Bozeman, MT1:47:11.36 359139  2474 
14 RICHARD JACINTO   San Jose, CA1:47:12.87 198483  1987 QUADZILLA RACING
15 CHRIS MARSH   Moorpark, CA1:47:18.68 22585  1144 Fast Friday
16 BLAIR PETERSON   Mill Valley, CA1:47:26.51 118422  2490 ABOVE CATEGORY RACING
17 RANDY CALVIN   1:47:34.60  1131 
18 MITCH METHOD   1:47:47.21  1146 
19 DAN POLLARD   Roseville, CA1:48:11.62 269166  1149 
20 MATT MCKAGAN   1:48:19.69  1145 
21 HUGH MARASA   1:49:51.60  1143 
22 TODD SMITH   1:50:43.96  1152 
23 CHRIS PICKETT   Ramsey, NJ1:51:02.92 238740  1148 
24 ANDY SOMERVILLE   Newport Beach, CA1:51:05.64 33456  1153 
25 CHRIS BAKER   1:51:29.28  1127 
26 CHRIS KERSTING   1:51:55.09  1142 
27 BRETT HOBSON   Bristol, RI1:52:06.10 198835  1140 
28 ROB WASSMER   Sacramento, CA1:52:53.08 349444  1760 
29 JOE FRITZ   1:59:57.37  1136 
30 MIKE FISHER   2:03:20.25  1135 
31 JENS MOYER   2:04:00.43  1147 
32 MICHAEL ROSENBERG   2:04:32.02  1150 
33 JEFF STEINHART   2:12:06.27  1154 
34 BRAD BARGMANN   Rancho Cordova, CA2:16:50.54 84754  2110 
35 WILLIAM THOMAS   2:20:14.26  1155 
36 DAVE CULBERTSON   2:27:47.86  1133 
37 RICK ABERCROMBIE   2:28:27.52  1123 
38 NICK AMPON   Dublin, CA3:07:05.28 303656  1124 

Men - Cat 2 - Masters - 53-54

 Place Points NameCity, StateTime USAC #BibTeam
1 JOHN GRUBBS   Sacramento, CA1:38:26.46 169138  1171 
2 STEVE CLIFTON   Aptos, CA1:40:37.42 158107  2078 Team Santa Cruz (SCCCC)
3 ERIC HANSEN   Santa Cruz, CA1:41:52.09 324250  1172 
4 WEBSTER ERIC   1:42:06.60  1167 
5 MARK LUKE   Goleta, CA1:42:38.22 131303  1179 Platinum Performance Cycling Team
6 Ralph Herman Jr.   Thousand Oaks, CA1:43:25.87 226994  1992 FAST FRIDAY
7 JOHN HANSEN   1:44:07.22  1173 
8 Thomas Jakaby   Los Gatos, CA1:47:42.71 355666  1176 
9 ANDY RUSSELL   Walnut Creek, CA1:50:05.32 30906  1185 
10 ROBERT BUCKLEY   San Rafael, CA1:51:53.37 5354  1160 
11 James Lentfer   Cupertino, CA1:51:54.27 254004  1177 
12 PATRICK DEBERDT   1:52:09.42  1164 
13 TED MCKAY   1:52:10.79  1180 
14 EDUARDO LLACH   Palo Alto, CA1:53:08.68 243005  1178 
15 JAN DE JONG   1:56:54.07  1163 
16 ROBERT DRAPER   Ventura, CA1:57:37.87 367237  1165 METALMTN Cycling
17 PHIL FISHER   1:57:52.59  1168 
18 THOMAS MOORE   1:58:36.11  1182 
19 TERENCE GRANT   Mill Valley, CA2:00:13.77 286765  2446 
20 CHRISTOPHER BARRETT   2:00:29.38  1158 
21 CHRIS CLUTTON   2:01:15.09  1161 
22 KEITH IGNATOWICZ   2:02:56.44  1175 
23 TODD FITZWATER   San Jose, CA2:06:23.98 114973  1170 
24 ERIC ROBINSON   New London, NH2:17:33.88 137166  1184 
25 JIM BEUSELINCK   Saratoga2:34:56.38 201879  1159 
26 FRANK MCMILLAN   3:21:10.64  1181 

Men - Cat 2 - Masters - 55-59

 Place Points NameCity, StateTime USAC #BibTeam
1 James Rowton   La Canada, CA1:34:12.82 371164  1207 
2 SCOTT SKELTON   Shadowhills, CA1:41:52.52 291640  1209 Montrose Bike Shop- CW Builders
3 SCOTT MARTIN   1:43:09.30  1202 
4 TRACY HRACH   Westlake Village, CA1:43:24.70 183801  1197 
5 Steve (Cosmic) Miller   Lake Stevens, WA1:46:04.13 203491  1203 Blackstar Racing
6 KENNETH MOZEK   Danville, CA1:47:03.23 220799  1204 
7 DON CONLEY   1:49:40.43  1190 
8 DWIGHT GOSS   Santa Cruz, CA1:50:03.43 345718  1194 
9 GARY STEWART   1:50:13.22  1211 
10 DIRK ROHLOFF   Los Gatos, CA1:50:15.21 262233  1206 Fightin' Bobas
11 GEORGE CRUZ   1:51:12.65  1192 
12 ROGER LOPEZ   1:51:12.69  1199 
13 RANDY BATSELL   Antioch, CA1:51:19.31 2883  1186 
14 LEE MACDONALD   Martinez, CA1:51:25.57 21989  1201 
15 STEVE COLFORD   1:52:47.37  1189 
16 JOSEPH CRABTREE   Pacific Grove, CA1:54:04.86 8025  1191 
17 STEPHEN MILLER   2:00:10.49  2491 OCRIDERS.COM
18 THOMAS WOOD   2:02:42.10  1213 
19 KURT WIESE   Laguna Beach, CA2:04:21.43 219893  1212 
20 T0MMY BENCICH   2:07:23.76  2473 
21 SAM GELPI   2:09:24.00  1193 
22 TERRY CALLAHAN   El Dorado Hills, CA2:09:56.96 97516  2498 
23 STUART GRIMSHAW   San Jose, CA2:16:36.85 14226  1196 
24 MATT DUNSTAN   Boulder Creek, CA2:19:05.22 190160  2090 
25 RAMON AMANCIO   2:30:53.47  1785 

Men - Cat 2 - Masters - 60-99

 Place Points NameCity, StateTime USAC #BibTeam
1 JEANICK OSTER   Los Angeles, CA1:50:41.24 26893  2058 
2 SCOTT SAMPSON   Newhall, CA1:54:18.39 213711  1225 
3 JEFF BAKER   1:57:46.40  1215 
4 JOSEPH PRITCHARD   Benicia, CA1:58:14.22 90582  1224 Mellow Motors
5 KURT BARTON   Meadow Vista, CA1:59:19.34 356682  1216 Victory Velo Racing
6 DALE GREENHALGH   2:02:39.13  1220 
7 WILLIAM DUNKUM III   2:04:15.74  1218 
8 RICHARD BOWDEN   2:15:57.43 40028  1217 
9 EDWARD MUNDY   2:19:16.30  1222 
10 SAM EVANOVICH JR.   2:26:48.51  1219 

Men - Cat 3 - Clydesdale

 Place Points NameCity, StateTime USAC #BibTeam
1 HUDSON SMYTHE   San Francisco, CA1:21:11.83 164165  1883 
2 CAM PRIMAVERA   Aptos, CA1:22:43.01 316156  1879 One Team Racing
3 DERALD SUE   Alameda, CA1:23:20.68 220801  2018 
4 MIKE DULIN   1:24:22.20  1852 
5 JAMES SHEPHERD   1:24:24.56  1882 
6 JOHN HOUSEMAN   1:27:02.64  1856 
7 BRYAN FERKINS   1:27:41.79  1853 
8 STEVEN GLAUDE   Rocklin, CA1:27:48.67 331412  2080 
9 STEVEN LEWIS   1:30:59.39  1860 
10 DAVE PARRY   1:31:24.82  1877 
11 CHRISTIAN BROCATO   1:31:45.97  1847 
12 KEN MISIN   1:31:59.35  1870 
13 JAMES PANTOJA   1:32:10.83  2049 
14 ERICK MARTINEZ   Fairfax, CA1:32:59.18 51611  1865 
15 LARRY BUTLER   1:35:57.24  1848 
16 BRIAN LARSON   1:38:32.88  1859 
17 JASON BOYD   1:38:42.97  1846 
18 CHRISTIAN SUDER   1:39:37.86  1886 
19 STEVE MILLION   Pleasant Hill, CA1:41:14.48 185001  1869 
20 HIRO HAYASHIGATANI   1:41:29.97  1855 
21 DON MALLERY   1:41:53.63  1861 
22 ALAN THOMPSON   Destin, FL1:42:15.49 211374  1757 
23 JOEY ADAME   1:42:59.96  1844 
24 STEVE CONTRERAS JR   1:44:01.80  1850 
25 JOEL DECOU   1:44:18.58  1429 
26 KYLE WINWARD   1:44:19.66  1887 
27 STEPHEN MCMAHON   1:45:50.88  1868 
28 DAMON ROPOULOS   San Jose, CA1:48:10.71 274902  1880 
29 DANNY MCKEEVER   1:48:48.77  1867 
30 ROY RICHARDSON   Saint Louis, MO1:51:49.70 42261  2437 
31 Matthew Prather   Irvine, CA1:54:25.96 346490  1878 
32 MICHAEL O'CONNOR   1:54:47.52  1874 
33 DANIEL PANTOJA   1:55:13.73  1876 
34 JEFF KISYLIA   1:57:29.63  1857 
35 BRANDON WINKLES   1:57:30.20  2107 
36 RICHARD MITCHELL   2:02:20.47  1871 
37 ANDREW MANIES   2:03:35.32  1862 
38 JOSELITO SORIANO   2:04:35.58  1884 
39 DONALD OWENS   2:20:40.39  1875 
40 CHRIS DOVE   2:26:37.88  2062 
41 SETH KNIE   Moorpark, CA2:40:06.33 313078  1858 
42 JIM MARTIN   2:43:23.13  1864 
43 DAN TROY   2:51:46.80  2009 
44 PEDRO MARTINS   3:06:31.18  1866 

Men - Cat 3 - Junior - 15-18

 Place Points NameCity, StateTime USAC #BibTeam
1 COLLIN MARCROFT   1:10:10.26  1383 
2 DAVID KIRSKE JR.   1:12:11.90  1380 
3 STEFFEN ANDERSEN   Soquel, CA1:13:07.07 344974  1361 
4 ALEC SEIVERT   Grass Valley1:13:50.93 352752  2451 
5 BENEDIKT TOELDTE   Boise, ID1:13:51.65 323822  1407 BYRDS (Boise Young Rider Dev Squad)
6 CARSON BENJAMIN   1:13:51.96  2024 
7 SOREN ANDERSEN   Soquel, CA1:15:07.09 344972  1360 
8 THOMAS OMORI   1:15:50.49  1389 
9 KYLE PETERSEN   1:16:10.24  1393 
10 MITCHELL PISCIOTTA   1:16:49.75  1395 
11 GARRET HAMMACK   1:16:49.95  1375 
12 HUDSON COURTRIGHT   1:17:09.01  1372 
13 JACK FEENEY   1:17:26.43  1374 
14 KYLE SWEENEY   Olympia, WA1:17:46.19 349996  1405 Revel Consulting/Rad Racing NW
15 NICO QUIROZ   1:18:02.92  1398 
16 JULIAN POREE   Corralitos, CA1:18:14.55 368137  1397 
17 ALEX BLAKE   Folsom, CA1:18:21.07 335838  2038 
18 NATHAN BARTON   Auburn1:18:42.58 361444  1366 
19 MAX FOGARTY   Berkeley, CA1:18:42.80 339432  2027 TIENI DURO BERKELEY HIGH MOUNTAIN BIKING TEAM
20 KALEB ANDERSON   Meridian, ID1:18:44.69 310252  1362 BYRDS (Boise Young Rider Dev Squad)
21 ENSEI KANEKO   Rough And Ready, CA1:19:16.39 335498  1378 Nevada Union Mt Bike Team
22 ERIK PITKANEN   Gig Harbor, WA1:20:39.11 350932  1396 Revel Consulting/Rad Racing NW
23 BRADLEY RUSSELL   Alexandria, VA1:20:45.71 232202  1401 Whole Wheel Velo Club
24 DAN PEDERSEN   1:20:46.55  1392 
25 ALEX OROVITZ   Nevada City, CA1:21:53.21 335362  1390 Nevada Union Mt Bike Team
26 ALEXANDER RIGA   Scotts Valley, CA1:22:19.93 368115  1399 Team Santa Cruz (SCCCC)
27 JOSHUA VIAR   1:23:32.47  1408 
28 RYAN SIMONOVICH   1:24:12.70  1403 
29 HAMISH HENDERSON   1:25:49.67  2077 
30 BRANDON BARRAGAN   1:26:09.91  756 
31 ERIC BOTOS   Boise Idaho1:26:21.12 361321  1368 BYRDS (Boise Young Rider Dev Squad)
32 JUSTIN O'CAMB   1:27:49.36  1387 
33 NICOLAS PALMER   Folsom, CA1:28:09.86 335844  1391 
34 DEVON BOSSI   Grass Valley, CA1:28:49.36 359790  1367 
35 HUGH ALESSI   Boise, ID1:28:49.50 360840  1359 BYRDS (Boise Young Rider Dev Squad)
36 ROBERT TERRA   Lodi, CA1:30:20.85 269793  1406 Team Bicycles Plus/Sierra Nevada
37 IAN PETTLEY   1:31:20.71  1394 
38 FORREST RUSSELL   1:32:44.99  2321 BEAR VALLEY BIKES
39 DRAKE MURPHY   1:33:20.19  1386 
40 DYLAN O'CONNOR   1:34:50.89  1388 
41 KYLE KOHLBRENNER   1:37:04.90  1381 
42 NIKOLAUS BROCATO   1:39:35.96  1369 
43 MICHAEL STARK   Bloomington, IN1:42:37.44 170431  2406 
44 RYAN MCCARTY   1:44:52.95  1385 
45 KARL SCHULTZ   1:49:31.24  1402 
46 RAMSEY KERR   1:57:50.83  1379 
47 JASON CARPENTER   1:59:21.24  1370 
48 SAMMY CEJA   2:17:22.52  1371 

Men - Cat 3 - Senior - 19-24

 Place Points NameCity, StateTime USAC #BibTeam
1 SALAR SALEHI   1:14:39.69  1422 
2 WYLES VANCE   Stanford, CA1:16:55.49 272147  2098 Stanford University
3 JESS STRICKLIN   1:18:33.89  2105 
4 SERGIO ALCALA   1:23:59.18  1409 
5 DANNY MARTIN   1:28:16.02  2414 
6 RICHARD NAGEL   Vacaville, CA1:29:45.36 345938  2438 GRASS ROOTS RACING
7 DALLIN SEVY   Folsom, CA1:35:46.18 335950  2500 FOLSOM HIGH SCHOOL
8 DARYL MIRABUENO   1:35:56.47  1418 
9 WILL SCHEEL   1:37:09.63  1423 
10 STUART JONES   Denver, CO1:37:19.23 198965  1415 
11 LORENZO CADIZ   1:40:50.51  1412 
12 AUSTIN DEAN   1:41:30.07  1413 
13 KYLE JURY   2:01:31.36  1416 
14 ROBERT JONES   2:05:18.57  1414 
15 GRANT LINHARES   Modesto, CA2:14:55.97 345826  1417 
16 THOMAS ASADURIAN   2:29:02.09  1410 

Men - Cat 3 - Senior - 25-29

 Place Points NameCity, StateTime USAC #BibTeam
1 TED THOMAS   1:11:53.84  1446 
2 JEFF BLOCK   Pasadena, CA1:11:59.08 306165  2104 Ritte Racing
3 ADAM COLEMAN   Grover Beach, CA1:16:01.49 354606  1427 
4 TREVOR KRUGMAN   1:18:04.84  1437 
5 CORY CALDWELL   Lafayette, CA1:18:06.16 136638  2011 ENDURO BEARINGS
6 ERIC ELMS   Los Altos1:19:03.39 375759  2462 
7 BRANDON HEARN   1:21:39.36  1433 
8 DAVID RAMSAUR   1:21:52.90  1982 NAVAL POSTGRADUATE SCHOOL
9 NOLAN SEMRAU   Washington, DC1:23:17.88 336762  1442 Naval Postgraduate School
10 WILLIAM JANHUNEN   1:23:53.15  1435 
11 JOE STANWYCK   1:24:34.53  1443 
12 CHRIS HORNBERGER   San Luis Obispo, CA1:24:51.91 254156  2042 
13 JOAQUIN FIERRO   Pleasanton, CA1:25:01.95 375527  1431 
14 PETER MYERS   1:25:02.54  1439 
15 JOSEPH GENTRY   North High Shoals, GA1:25:02.59 203629  2096 
16 JONATHAN NG   1:25:29.74  1440 
17 TUCKER MCCORMICK   1:27:26.70  2043 
18 MIGUEL CORRAL JR.   1:27:42.06  1428 
19 JUSTIN KENNEDY   1:30:26.44  1436 
20 SERGIO ESPINOSA   1:34:48.67  1430 
21 DAVID BUTLER   1:35:24.20  1425 
22 ERICK ARTEAGA   1:38:06.17  1424 
23 ALEX SEIPP   1:40:07.61  2041 
24 EDWARD POL.YAKOV   1:42:01.35  2478 
25 DEREK LAMARAND   1:42:07.30  1438 
26 BRIAN GOLDSMITH   1:44:30.79  1432 
27 ANHTUAN HONG   1:45:08.54  1434 
28 ARRON THOMAS   1:45:36.35  1445 
29 LUIS CADIZ   1:57:24.06  1426 
30 KRISTOFFER DEAN   Arcata, CA1:57:36.68 360174  2467 
31 ROBERTO SANCHEZ   1:57:52.76  2007 
32 DAVID RUSSELL   2:00:08.95  1441 
33 ROBERT CARTER   2:15:51.78  2025 
34 RYAN STARK   2:31:47.32  2063 

Men - Cat 3 - Masters - 30-34

 Place Points NameCity, StateTime USAC #BibTeam
2 JEREMY SMITH   1:11:25.98  2455 
3 JASON LOKKESMOE   San Rafael, CA1:12:35.84 60439  1470 
4 STEVEN JONES   1:13:49.78  2423 
5 ROBERT SANDEFER   1:13:54.04  2069 
6 GRAHAM DITTMAN   1:13:57.83  1457 
7 BRENT SEWELL   1:18:05.57  2453 
8 PRIIT UMBSAAR   1:18:56.40  2047 
9 JON PANKOW   Los Angeles, CA1:18:56.45 284691  1475 
10 JERROD ADAMS   1:20:04.43  1447 
11 TRAVIS HOCKERSMITH   Danville , CA1:21:02.36 204475  1464 
12 NATHANIEL KAPINOS   San Francisco, CA1:21:31.12 327832  2074 
13 MICHAEL CZAJKOWSKI   1:23:05.65  1456 
14 ALEX SHARTSIS   1:23:23.89  1482 
15 CHRISTOPHER KNAPP   1:24:20.96  1468 
16 BRENT BERTSCH   Sanjose, CA1:24:48.58 287521  1452 
17 NICHOLAS HAMMOND   Concord, CA1:25:33.14 348676  1463 
18 THOMAS KENEFICK   1:26:16.57  1466 
19 JACOB CARTER   Columbia, MO1:27:19.24 270581  1453 
20 MATTHEW BERRY   1:27:52.22  1451 
21 CASEY GON   Chula Vista, CA1:27:58.31 204269  1983 NPS
22 MOISES GONZALEZ   1:29:11.38  1461 
23 MATTHEW FRITSCH   1:31:21.23  1854 
24 JOSE MARIA RODRIGUEZ   1:31:22.91  1479 
25 GIANPAUL FERIOLI   Arcata, CA1:32:33.06 338562  2469 
26 PAUL BELMONT   1:32:38.31  1449 
27 CRAIG MATTHEWS   1:32:38.97  1471 
28 GASPAR RODRIGUEZ   San Jose, CA1:33:11.75 207752  1478 
29 CHRIS PANDY   1:36:00.30  1474 
30 EU YEN KONG   1:36:30.58  1469 
31 CHRISTOPHER RITCHEY   Mountain Ctr, CA1:38:25.17 40376  1476 
32 BRIAN KENNEDY   1:39:33.76  1467 
33 GEORGE BERNDT   1:39:40.36  1450 
34 OZZIE PEGUERO   1:39:54.88  2040 
35 CARY CASIS   1:40:37.87  1454 
36 MATTHEW RAUPP   1:41:09.28  1976 
37 NIKO FERRANDINO   1:45:58.97  1458 
38 KENJI NAMBA   1:49:32.37  1472 
39 RICARDO CHAVEZ   1:50:03.37  2456 
40 SEAN THOMMES   1:53:08.64  1485 
41 JAYSON SANTAYANA   1:56:11.82  1480 
42 BO RIVERA   2:00:05.84  1477 
43 TIM ADKINS   2:04:12.78  1448 
44 MIT SHAH   2:04:25.69  1481 

Men - Cat 3 - Masters - 35-39

 Place Points NameCity, StateTime USAC #BibTeam
1 MAC HEEBNER   Danville, CA1:13:13.17 252751  1516 
2 CARL DAHLBERG   1:14:47.03  1500 
3 ERIC ZUBICK   1:15:29.76  2479 
4 RYAN FONTES   1:16:31.65  1507 
5 ERIK ECCLES   San Francisco, CA1:17:18.64 288011  1505 
6 JESUS ORTEGA   1:17:36.69  1532 
7 WILL ALDRICH   1:17:53.54  1487 
8 ROBERT GUILLEN   1:18:02.62  1512 
9 MICHAEL HABICHT   1:18:23.84  1514 
10 DARREN KRAKER   1:19:47.40  1521 
11 JOSH SHORTER   1:19:48.60  1542 
12 MARK YAKUSHEV   1:22:18.20  1551 
13 JOSE MANUEL HERNANDEZ   1:23:01.79  1518 
14 SETH WHITE   Jaxville Bch, FL1:24:26.86 71443  1549 
15 LUIS SALDANA   1:24:47.13  1538 
16 JAMES LAWRENCE   1:25:02.13  1525 
17 RICH GARGANO   Burke, VA1:25:09.94 368930  1510 Naval Postgraduate School
18 BRANT CARTER   1:26:23.76  1496 
19 JULIUS DY   1:26:24.86  2020 
20 DANIEL BLATT   1:26:40.18  1493 
21 CRAIG TAYLOR   1:26:58.48  1546 
22 WILLIAM ISAACSON   1:27:02.03  1519 
23 CARLOS HERNANDEZ   1:27:07.68  1517 
24 PAUL PATANGUI   Mountain View1:27:07.75 379788  1535 
25 SANTIAGO MELCHOR   1:27:13.32  1527 
26 RYAN BROWN   1:28:38.29  907 
27 MARK DRAGOO   1:28:57.27  1975 
28 JORDAN FOSS   1:29:22.14  1508 
29 BRIAN TAYLOR   1:29:40.86  2459 
30 GREGORY BAMFORD   1:30:00.24  1489 
31 LIBERTY PARTRIDGE   1:30:24.13  1534 
32 RONALD CORPUS   1:30:43.87  1499 
33 DANIEL LAWSON   1:30:54.44  1526 
34 CHRIS ROSSET   1:30:58.92  1537 
35 KYLE BROUGHTON   Fairfield, CA1:32:21.87 185154  1495 
36 GERARDO CEJA   1:33:03.16  1497 
37 REGINALDO L. ORQUE III   1:34:12.62  1531 
38 TY SALSBERY   Campbell1:35:16.79 366619  1539 
39 BOBBY TAN   1:35:20.65  1545 
40 CHRISTIAN HAGEL-SORENSEN   1:36:32.49  878 
41 EDMUND SORIANO   1:37:02.67  1483 
42 GREG BIBLE   1:37:12.52  2411 
43 ROMMEL GUINOO   1:37:37.83  1513 
44 RAMON CHAMORRO   1:39:19.25  1498 
45 ERIC WALLIS   1:39:49.37  2068 
46 OMER SHAPIRA   Sunnyvale, CA1:41:24.03 286808  1541 Quadzilla Racing
47 BRIAN KOUSKY   1:42:04.83  1520 
48 JUSTIN BALAS   1:42:16.24  1488 
49 IVAN DIAZ   New York, NY1:42:30.98 166420  1503 
50 DION DANGZALAN   1:44:38.29  1501 
51 SERGIO FONSECA   1:47:16.35  1506 
52 JESSE LAMARAND   1:47:27.38  1523 
53 TU DIEP   1:48:14.17  1504 
54 DAVID NEILSON   1:48:44.59  1530 
55 MATT SMITH   1:50:51.79  1543 
56 DAVID MASON   1:55:02.58  1977 
57 LIONEL GONZALEZ   1:57:10.43  1511 
58 JAMES BROOKS   2:00:08.41  1494 
59 JAMES LAENO   2:13:36.79  1522 
60 ROB SCHLUENSEN   2:25:18.93  1540 
61 MICHAEL DELA CRUZ   2:27:21.65  1502 
62 JASON TOLENTINO   2:49:32.78  1548 

Men - Cat 3 - Masters - 40-42

 Place Points NameCity, StateTime USAC #BibTeam
1 MICHAEL LUTHER   North Collins, NY1:16:22.55 99397  1576 
2 NICK STEEL   Thousand Oaks, CA1:16:24.66 331634  2497 CVC FRANCO
3 MALVIN CHUA   1:17:56.55  1561 
4 SCOTT HARDY   1:18:00.59  1571 
5 MICHAEL MEDINA   1:18:32.81  1580 
6 JACKSON CURRIE   1:18:34.10  1566 
7 CHAD COVINGTON   Clovis, CA1:19:12.63 7956  2059 
8 EVERARDO LOMELI   1:20:07.12  1574 
9 ERICK ALDRICH   Oceanside, CA1:20:47.94 371460  2004 SUPER HAPPY FUN TIME
10 SHAWN JENKINS   1:22:32.65  1572 
11 MIKE STAN   1:23:09.08  1589 
12 JOHN TSAMASFYROS   San Mateo, CA1:23:37.47 331076  1592 CoreTechs Cycling Team
13 RICARDO SURALTA   1:25:05.59  1590 
14 SAL MARTINEZ   1:25:45.26  1577 
15 JAMES CAREY   1:25:59.93  1559 
16 ARIS DELOS REYES   1:27:05.45  687 
17 PETER ODELLO   1:28:43.20  1582 
18 VINCE MIER   1:29:01.24  1581 
19 PAUL KUTIA   1:29:40.43  497 
20 MARCUS PETERLIN   San Ramon, CA1:29:47.69 293059  2036 DANVILLE BIKE
21 WINSTON ASPREC   San Ramon, CA1:30:09.99 290791  1553 
22 JOSEPH RAMIREZ   1:30:41.55  1583 
23 CONRADO CALALANG   1:31:26.95  1558 
24 IVAN LOPEZ   Los Angeles, CA1:31:39.66 352080  1575 
25 KEVIN GNUSTI   Oakland, CA1:32:44.28 189896  1569 
26 PATRICK EMGE   1:33:18.79  2427 TEAM M-W - PBR
27 JASON MCCUNE   1:33:35.59  1578 
28 JUSTIN SOBIERAJ   1:34:17.58  1588 
29 WATANI FENNELL   San Jose, CA1:35:16.60 380072  1567 
30 BRIAN REKASIS   1:36:20.00  1584 
31 LIAM DOUST   Pebble Beach, CA1:37:09.83 250523  2488 COLDWELL BANKER
32 RONELL MALLARI   1:37:53.96  2329 
33 OMAR BRACAMONTES   San Jose, CA1:37:56.87 196322  1556 
34 ANDREAS BOSCH   San Rafael, CA1:39:27.78 230399  1555 
35 WARREN COUGHLIN   1:51:34.23  1563 
36 ANTHONY JUNG   San Francisco, CA1:53:50.93 147149  1573 
37 MARTIN MOSS   1:59:11.64  1872 
38 JOHN CONLEY   2:04:35.38  2048 
39 NOEL BUDOMO   2:04:45.93  1557 
40 PABLO ROJAS   2:07:46.43  1585 
41 MICHAEL CROOKS   2:26:51.74  1565 

Men - Cat 3 - Masters - 43-44

 Place Points NameCity, StateTime USAC #BibTeam
1 RAFAEL ORTIZ   San Francisco, CA1:16:09.95 107842  1618 
2 DAVID JERO   1:16:30.86  1014 
3 JASON BOWLES   1:16:58.21  1596 
4 JOEL RAMIREZ   1:18:07.31  1621 
5 RICK BRAVO   1:22:17.50  1598 
6 HECTOR JUAREZ   1:24:04.80  1610 
7 BOW LEMP   1:24:15.26  1613 
8 VINCE TARRY   1:25:36.96  1631 
9 ROB APPEL   1:26:02.33  1595 
10 Paul Young   Morgan Hill, CA1:27:58.65 378462  2476 
11 DARIN JESBERG   Modesto, CA1:28:22.75 379257  1608 
12 ROBERT SANDOVAL   1:29:00.55  1624 
13 BRIAN TOOMBS   1:29:19.68  1632 
14 THOMAS PISILLO   Greenbrae, CA1:29:39.09 185027  1619 
15 DAVID SANTOS   1:30:23.45  1625 
16 HERMAN MANRIQUE   1:30:28.02  1615 
17 LEE JETTON   Salinas1:30:32.62 367729  1609 
18 GEOFF BRADLEY   1:30:49.64  1597 
19 Jorge Lopez   Alameda, CA1:32:15.98 368901  1614 
20 SCOTT SHUTE   San Jose, CA1:32:25.00 142044  1628 
21 CHRISTOPHER CAGUNGUN   Dublin, CA1:33:07.77 351896  1599 
22 AARON ALBOR   Orangevale, CA1:35:14.06 335944  1593 Singletrack Racing Development
23 JAY ZUTANT   1:35:21.88  1636 
24 JOSEPH LAGUNA   Gilroy, CA1:35:45.37 136668  1612 
25 DAN MCNAMARA   Greenville, SC1:36:19.56 308116  1616 
26 DAVID SCOCCA   1:37:25.58  1627 
27 RAMAN SARIN   Redmond, WA1:39:05.35 339034  1626 
28 ARNOLD ZAVALLA   1:40:19.87  1635 
29 ADAN VELAZQUES   1:41:01.53  1633 
30 J ALLARD   Seattle, WA1:41:12.71 228022  1988 PROJECT 529
31 ISMAEL HERNANDEZ   1:41:40.15  2087 
32 SCOTT RADWAN   1:42:05.90  2335 
33 BURKE CULLIGAN   1:42:27.26  1601 
34 JORGE DIAZ   1:42:33.09  1602 
35 DEL MIRANDA   1:47:08.80  1617 
36 CHIRAG PATEL   1:48:22.37  2052 
37 JORGE ADALBERTO GARCIA   1:49:35.47  1605 
38 ROBERT GERODIAS   2:00:22.47  1606 
39 RAJ KESARAPALLI   2:03:38.05  2053 
40 MOSS HUDSON   2:04:01.24  1607 
41 VICTOR CLEMENT   2:06:37.79  1600 
42 VECHI HARDWICK   2:11:11.66  2056 
43 JAVIER SALDANA   2:13:34.40  1623 
44 MARIO FEDERICO   Salinas, CA3:26:09.91 314814  1604 

Men - Cat 3 - Masters - 45-47

 Place Points NameCity, StateTime USAC #BibTeam
1 MIKE CHAVEZ   1:16:40.90  1644 
2 ERIK WEEK   Vacaville, CA1:17:27.02 166444  1686 
3 CLIFFORD DOI   1:18:20.97  1649 
4 GREGORY EISEN   1:19:32.93  1650 
5 JIM MILLER   San Diego, CA1:20:19.44 220797  2089 
6 JEFF SWAN   Saratoga, CA1:20:21.61 158973  1680 
7 MICHAEL DEAN   1:21:36.50  1647 
8 JEFF WALKER   1:22:28.00  2099 
9 BRENT YOST   1:22:33.46  1688 
10 JAMEY PAPPAS   1:22:56.93  1673 
11 JOHN GRIFFITHS   1:24:45.59  1655 
12 TAKI HIRAOKA   Los Altos, CA1:24:57.21 16297  1659 
13 DARIUS KHAYAT   San Marcos, CA1:25:38.35 276824  1662 
14 ANDY LEISNER   1:26:43.10  1663 
15 STEPHEN GUERZON   1:27:33.00  1656 
16 ALBERTO LOPEZ   Miami, FL1:27:37.36 314212  1664 
17 ZAK CLAYCAMP   1:28:19.93  1645 
18 JEFF BRODINE   Los Gatos, CA1:28:57.63 4930  1640 
19 JENS OLSON   Saratoga, CA1:29:55.28 365763  1671 
20 DAVID SUPAN   San Francisco, CA1:30:04.14 186441  1679 
21 DANIEL ST JOHN   Milton, MA1:30:36.35 83931  2026 
22 SCOTT VAN HORN   1:31:02.69  1683 
23 KEVIN MORGAN   1:31:04.45  1667 
24 ERIK FOUTS   Lafayette, CA1:31:21.47 76281  1652 
25 MARTIN DELUCA   1:32:34.06  1648 
26 DALE NIEMI   Coto De Caza, CA1:35:34.81 205689  1670 Team Velosport Club
27 LAWRENCE WAGNER   Defiance, OH1:36:12.11 310981  1685 
28 CHRISTIAN PALMER   1:36:14.06  1672 
29 MIKE MURPHY   1:36:26.03  1668 
30 GARY GRACE   1:36:27.13  1653 
31 RON NICOLAS   Murray, KY1:37:06.57 178378  1669 
32 AL DIETZ   1:37:28.83  2081 
33 CHRISTOPHER KELLY   1:39:58.90  1661 
34 SPENCER ABUAN   Milpitas, CA1:40:08.95 177666  1637 
35 STEVE SIMONOVICH   1:40:22.27  2014 SANTA CRUZ MOUNTAINS CYCLING TEAM
36 BRENT MARTINEZ   Losangeles, CA1:40:33.40 291037  1666 
37 DARIN VIAR   Newport, OR1:40:42.30 262893  1684 
38 DEREK MAAK   1:41:33.03  1665 
39 RONNIE USREY   1:41:38.29  1682 
40 DENNIS GRIFFIE   1:41:54.36  1654 
41 GREG FLANAGAN   Des Moines, IA1:43:55.42 160913  2088 
42 GARY HOFSHEIER JR.   1:44:46.59  1660 
43 FELIPE BARRETO   1:44:49.47  1638 
44 AHMED TAWASHI   1:51:42.90  1681 
45 THEO BUCKENDORF   Davis, CA1:56:05.81 5333  1641 
46 ANTHONY RUSSELL   1:59:01.38  1881 
47 ROBERT CARP   2:02:25.60  1642 
48 CURT CHAPPELL   Oakdale, CA2:15:47.28 212483  1643 
49 TOM SHILLING   2:25:22.47  1677 
50 VINCE COONS   Vacaville, CA2:28:34.86 226535  1646 Grass Roots Racing pb Velo Wrench

Men - Cat 3 - Masters - 48-49

 Place Points NameCity, StateTime USAC #BibTeam
1 Mark Tucker   San Diego, CA1:16:48.87 362416  1713 
2 DAVID BENJAMIN   Binghamton, NY1:16:58.96 125402  2023 
3 MIKE FREUDE   1:21:16.83  1697 
4 EDWIN SALVATIN   1:23:24.60  1708 
5 MIKE WILSON   1:24:47.91  1714 
6 BOBBY WOODS   Agoura Hills, CA1:25:55.20 381654  1716 
7 ROBIN TINER   1:26:08.26  1711 
8 RUDY CASTANIADA   1:28:16.14  1694 
9 MICHAEL YARTZOFF   1:28:29.27  2333 
10 RIGOLETTO PASIBE   1:29:16.09  1705 
11 DAN HARPER   1:30:06.54  1698 
12 NORADINO SALAS   Elk Grove, CA1:30:32.26 276842  1707 
13 KEVIN VOIGT   1:31:08.64  2002 
14 BRIAN BOARDMAN   1:32:52.55  1690 
15 GERARDO DIAZ   1:33:24.64  1696 
16 JAMES CARRILLO   Costa Mesa, CA1:35:34.70 147627  1693 
17 JOSEPH FAXON   1:35:57.06  1093 
18 SCOTT JURY   1:37:07.74  1700 
19 JIM BURNS   1:37:12.44  1691 
20 FRANK ROCKWOOD   1:38:13.79  1706 
21 HERB CAMPBELL   1:45:55.26  1692 
22 DARREL JAMES   1:46:55.84  1699 
23 BRIAN WONG   1:55:27.31  1715 
24 BRAD FOY   2:02:03.73  2463 
25 MIKE CROFT   2:05:42.77  1695 
26 TODD ZEMAN   2:08:30.65  1717 
27 THOMAS MCCARTY   Greenbrae, CA2:18:05.64 189975  1702 
28 ALFREDO MEJIA   2:18:58.69  1703 
29 PATRICK SCOTT   2:23:21.76  1710 
30 KEVIN O'RIORDAN   2:29:24.97  1704 

Men - Cat 3 - Masters - 50-52

 Place Points NameCity, StateTime USAC #BibTeam
1 TIMOTHY HARMON   Sun Valley1:15:06.03 375151  1735 
2 JEFF AKINS   Aromas, CA1:17:13.49 99678  2345 
3 RYOSEI KANEKO   Rough And Ready, CA1:17:49.11 356162  1738 Nevada Union Mt Bike Team
4 DAN HARVEY   Cedar Grove, WI1:20:16.35 266991  1736 
5 DOUG PECYNA   1:21:45.93  1748 
6 KEVIN SCHNEIDER   Brighton, MI1:22:43.15 373199  1753 
7 CHIP MCAVOY   1:24:23.90  2109 
8 DANE DICKSON   Danville, CA1:25:36.56 346780  2050 
9 BILL MORRISON   Mesa, AZ1:25:59.86 127625  2073 
10 COLIN CARR-HALL   1:26:06.85  2028 TEAM MAD CAT
11 ANDREAS KOHLBRENNER   Nicasio, CA1:26:11.80 291863  1740 
12 BRIAN MOLSBERRY   1:27:29.75  1744 
13 MARK JONES   Fresno, CA1:27:44.93 328860  1737 
14 EUGENE PRITCHETT   Lompoc, CA1:27:45.60 166588  1749 
15 STEPHEN LIS   Sunland, CA1:29:35.52 88240  1741 
16 HOWARD ROYER   1:29:51.05  1751 
17 ERIC NEWMAN   1:31:32.13  1745 
18 STEVE TABRETT   1:31:58.31  1755 
19 CURTIS COLAW   Modesto, CA1:32:04.20 155422  1724 
20 FRANK SCHILLINGER   1:32:06.50  1752 
21 DION VOKOS   1:33:59.08  1759 
22 MARK TRENTO   1:35:11.12  2071 
23 CHRIS DAVIES   1:35:20.36  1725 
24 VICTOR ESCH   1:35:20.68  1727 
25 JEFF YAMASHITA   Monterey, CA1:36:39.43 39144  1761 
26 ERIC YOUNG   1:37:15.74  2402 
27 EMMANUEL CELESTINO   1:37:41.52  1722 
28 MATT FINDERS   Agoura Hills, CA1:37:43.60 86885  1731 
29 ROBERT PLUMEAU   1:38:01.66  2012 
30 MATTHEW BECKER   1:39:55.03  1718 
31 VICTOR BOYCE   1:40:32.68  1720 
32 JOHN BURCHFIEL   1:40:42.03  1721 
33 RICHARD THORNTON   1:43:35.28  1758 
34 DAVID ZAITZ   1:44:02.78  2493 PASADENA MOUNTIAN BIKE CLUB
35 MARK THOME   1:46:14.60  1756 
36 KEVIN STRONGE   1:47:38.87  1754 
37 CORY FAWCETT   1:50:04.07  1728 
38 KEVIN ASHBY   Martinez, CA1:51:45.80 330204  2468 
39 ANDRE LOTZ   1:53:00.02  1742 
40 DAVID M. GIZZI   1:54:00.92  1733 
41 RUSSELL FEWKES   1:59:51.67  1730 
42 MICHAEL FERNANDEZ-MELONE   2:13:59.67  1729 
43 TOM STALEY   2:23:27.53  1885 
44 MITCH NILSEN   2:27:24.89  1746 
45 FERNANDO GONZALEZ   2:39:05.40  1734 

Men - Cat 3 - Masters - 53-54

 Place Points NameCity, StateTime USAC #BibTeam
1 ARTHUR DUBERG   San Luis Obispo, CA1:23:07.01 258233  1166 
2 CHUCK SPITERI   San Mateo, CA1:23:38.84 292488  1777 Peninsula Velo Racing
3 MARK ANENBERG   Campbell, CA1:24:06.60 1768  1762 
4 ANTHONY GLAVES   1:25:03.34  1770 
5 GREG MILLOWAY   1:26:54.35  1772 
6 ROGER EDBERG   1:29:31.38  1769 
7 BEN SANCHEZ   1:30:14.63  1776 
8 ALEX THOMAS   1:30:14.88  1780 
9 MIKE GALIPO   1:33:47.56  2477 
10 JOHN DOWNEY   1:34:22.58  1768 
11 MARK BONTA   1:35:39.95  1764 
12 DEAN CROTHERS   1:36:06.31  1766 
13 MARK CARBONE   1:38:17.67  1765 
14 DALE WEBSTER   1:38:39.69  2430 
15 DAVID KIRK   1:40:10.41  1771 
16 STINO TAPIA   1:41:39.68  1779 
17 RICK BACA   1:44:12.13  1763 
18 CLIFF ZITLAW   1:52:57.08  1783 
19 DARRELL DAVIDSON   1:53:48.32  1767 
20 CHUCK THOMPSON   Santa Barbara, CA2:21:54.92 193819  1781 Polli Veloce

Men - Cat 3 - Masters - 55-59

 Place Points NameCity, StateTime USAC #BibTeam
1 TYLER HEERWAGEN   Palo Alto, CA1:23:08.72 15661  1796 Olympic Club
2 RANDY PHILLIPS   Denton, TX1:26:15.79 82392  1808 
3 STEVE SHIROMIZU   1:27:35.59  1814 
4 STEVE MOORE   1:27:59.91  1805 
5 DAN RUSS   Aptos, CA1:28:45.34 30899  1813 
6 PHILIPPE TARDIVET   1:29:15.68  1820 
7 DOUG WARD   1:29:40.37  1822 
8 MATTHEW STOVALL   Belmont, CA1:30:18.35 58921  1819 
9 MITCH BARRIE   1:30:18.39  1786 
10 RANDY NOGLE   1:30:18.48  1807 
11 ROGER MCCONNELL   1:30:44.62  1804 
12 GIOVANNI ALTAMURA   Napa, CA1:31:50.43 87195  1784 Eagle Cycling Club
13 DAVID GRAFF   Santa Clara, CA1:33:47.05 55406  1195 
14 THOMSON CHOY   1:34:43.16  1788 
15 JIM GARWOOD   Santa Barbara, CA1:35:48.41 169688  2480 ECHELON
16 DAN ARDOIN   Santa Maria, CA1:36:34.25 229749  2340 VANDENBERG FIRE
17 ROY NIGHTENGALE   Modesto1:37:05.91 365517  1806 Fun Sport Bikes Cycling Team
18 SKIP KOENIG   Sherman Oak, CA1:37:23.66 171034  1800 
19 MARK STEVENS   1:37:38.32  1818 
20 DONALD HOFFLER   Nevada City, CA1:38:07.87 346450  1797 Nevada Union High School Mt Bike Team
21 ERIC LITTLE   1:38:59.98  1801 
22 DONALD CLARKE   1:39:43.60  1789 
23 BRIAN SPIERSCH   1:39:48.76  1817 
24 MARK JONAS   1:40:25.83  1798 
25 RANDY GAETA   1:41:23.47  1793 
26 RAY GAUTHIER   1:44:20.43  1795 
27 ROBERT SLOMOWITZ   1:45:09.20  1815 
28 BOB MAYER   1:45:54.11  1802 
29 JAMES RICKETTS   Chico, CA1:46:32.96 301470  1812 
30 BYRON FOUNTAIN   1:47:10.98  1791 
31 BRIAN CULLEN   Brunswick, ME1:50:33.15 70937  2407 
32 PAUL SMITH   1:55:05.54  1816 
33 GREG RECK   2:01:26.79  1810 
34 RON RECK   2:01:30.14  1811 
35 DENNIS GARCIA   2:05:36.25  1794 
36 DOUG KIMSEY   2:14:30.24  1799 
37 RICK MCBRIDE   Henderson, NV2:16:52.82 23167  1803 
38 ROBERT VILLEGAS   2:37:52.88  1821 
39 DAVID DARROUGH   2:39:24.16  1790 

Men - Cat 3 - Masters - 60-99

 Place Points NameCity, StateTime USAC #BibTeam
1 JEFF CALHOUN   1:24:38.88  1824 
2 HUGH SEAGREAVES   1:27:14.78  1838 
3 GARY BRIDGES   San Carlos, CA1:28:06.55 4819  1997 PENINSULA VELO
4 STEPHEN MULFORD   Sacramento, CA1:30:32.91 305712  1834 Team Revolutions
5 JOHN HERSCHLEB   1:30:38.06  1830 
6 CHRIS MCHUGH   1:30:41.28  1832 
7 ROBERT HARASTA   1:35:22.29  2486 WORLD MOTORS
8 PATRICK MCNEILL   Salinas, CA1:35:53.36 293957  1833 
9 TIM SMITH   1:38:42.63  2471 
10 GARY SILVEIRA   1:40:05.63  1839 
11 JOHN REYES   1:40:24.43  1835 
12 ALLAN KATZ   1:42:02.34  2452 
13 JERRY CATON   1:44:41.88  1825 
14 BARY DAHLBERG   Reno, NV1:45:04.36 8509  1827 
15 CHARLES KAMRATH   1:46:48.64  1831 
16 GARY HART   Sacramento, CA1:49:09.70 82882  1829 
17 KENNETH BLAEDEL   Dublin, CA1:50:33.22 250255  1823 
18 DOMENIC STANSBERRY   Cortemadera, CA1:51:07.69 303578  1841 
19 JACK TAYLOR   1:51:51.19  1842 
20 DAVID COOK   1:52:38.74  1826 
21 JOHN DAWDY   1:53:30.71  2067 
22 THOMAS GOWING   2:11:28.18  1828 
23 RUSSELL ROBINSON   2:35:32.43  1836 

Women - Cat 2 - Athena

 Place Points NameCity, StateTime USAC #BibTeam
1 NANCY LAROCQUE   2:44:58.55  1331 
2 CAPRICE STREICH   2:50:35.91  1332 

Women - Cat 2 - Single Speed

 Place Points NameCity, StateTime USAC #BibTeam
1 MARISSA HALBEISEN   1:59:42.65  1333 
2 ERIN UPCHURCH   2:17:41.23  2489 TEAM MAD CAT
3 COLETTE MCFADDEN   Los Angeles, CA2:24:43.51 273333  2472 

Women - Cat 2 - Junior - 15-18

 Place Points NameCity, StateTime USAC #BibTeam
1 HANNAH RAE FINCHAMP   1:44:35.92  1257 
2 SARAH OGDEN   Tiburon, CA1:49:23.94 354818  1261 Whole Athlete-Specialized
3 AVERY MORIN   Roseville, CA1:49:41.39 266914  1260 Victory Velo Racing
4 QUINCEE CHANDLER   Salinas, CA1:50:04.03 368988  1255 
5 MCKENZIE MELCHER   Mentone, CA1:52:03.22 354114  1259 The TEAM
6 MADELAINE MELCHER   Mentone, CA1:52:19.99 354116  1258 The TEAM
7 SARA SCHNEIDER   Placerville, CA2:06:26.27 335602  1262 Singletrack Racing Development
8 PAMELA BOGUST   Sunland2:15:17.25 334050  626 The TEAM
9 DAISY WARD   Flagstaff, AZ2:24:35.91 354060  1263 AZ Devo

Women - Cat 2 - Senior - 19-29

 Place Points NameCity, StateTime USAC #BibTeam
1 BRIANNE SPIERSCH   Salinas, CA1:52:14.54 295715  1276 
2 STACY KRAHN   Fresno, CA1:53:00.59 285808  2076 Stevens Bicycle Racing
3 EMILY RYZNAR   Santa Cruz, CA1:55:04.88 327950  1275 
4 TERESA OLDOFREDI   1:55:23.30  1272 
5 SHANNON DEVINE   1:55:55.46  1265 
6 KAYDEE RATHS   Arcata, CA1:59:51.97 308570  1274 
7 JEAN HYDE   Annapolis, MD2:01:16.10 203714  1268 
8 CHRISTA BAKER   Nevada City, CA2:01:51.59 335510  1264 Nevada Union Mt Bike Team
9 JILLIAN RALSTON   2:03:03.24  1273 
10 MANDI MCKAY   2:05:47.68  1269 
11 Charissa Odom   Vacaville, CA2:06:57.73 298938  1271 
12 ANNA VALSING   2:07:03.56  1906 
13 HANNAH STARKEL   2:12:26.39  2465 
14 ASHLEY HANSEN   Kelseyville, CA2:15:41.49 330770  1267 
15 ERIN GLINES-FOORMAN   Folsom, CA2:23:07.82 221690  1266 
16 ANGELA MEYERS   Big Bear City, CA2:27:36.77 349540  1270 

Women - Cat 2 - Masters - 30-39

 Place Points NameCity, StateTime USAC #BibTeam
1 KATE MAJOR   San Rafael, CA1:39:25.07 377524  1284 
2 ERIN WERNER   Greenbrae, CA1:43:24.27 333208  1291 
3 ANDREA REIER   1:48:00.60  1288 
4 MELISSA NICHOLAS   1:51:35.01  1287 
5 DENISE SOULTANIAN   San Jose, CA1:55:36.28 131989  1289 Velo Girls
6 DENA MALLOY   1:56:26.07  1285 
7 CHRISTINA ANDERSON   1:56:34.30  1278 
8 APRIL HERRING   The Woodlands, TX2:06:51.86 304663  1282 Woodlands Cycling Club Race Team
9 JENNIFER VANGORDER   Seattle, WA2:07:34.31 234320  1290 
10 BRIE BIETZ   2:09:20.53  1280 
11 JESSICA BALAAM   2:12:04.18  1279 
12 JENNIFER BRANDT   2:27:41.73  1281 
13 KAYA MOORE   2:39:17.03  1286 

Women - Cat 2 - Masters - 40-49

 Place Points NameCity, StateTime USAC #BibTeam
1 TRACY GAUCHER   Spreckels1:52:09.88 366170  1300 
2 ANGELA MART   Bend, OR1:55:03.13 306000  1304 WEBCYCLERY.COM
3 RENEE SHELTON   Mill Valley, CA1:55:29.92 101965  1310 
4 MONICA MAZZOCCO-ZUCKER   1:55:36.52  1305 
5 ELKE MACGREGOR   Palo Alto, CA1:55:57.40 250258  1303 
6 LYNICE ANDERSON   2:00:43.29  1292 
7 BRONWYN CONWAY   2:01:01.47  1295 
8 CHRISTIE SIMMS   2:01:23.66  1311 
9 CHRISTY MURPHY   Novato, CA2:03:29.57 171836  1306 
10 MARIA CURRAN   Emeryville, CA2:05:00.85 158818  1296 
11 SARAH MURPHY   2:06:02.23  1307 
12 JENNIFER GRIFALL   2:06:31.16  1301 
13 SALLY SMITH   Newbury Park, CA2:07:09.40 359061  2066 
14 NAOKO FUJIMAKI   Tokyo2:09:55.60 171877  1299 The TEAM
15 CATHERINE HINTON   Culver City, CA2:10:39.83 302321  1302 Cynergy Cycles Race Team
16 LES TERRY   2:11:21.95  1312 
17 JULIE TERRY CARRILLO   2:12:02.75  1313 
18 CINDY WELTON   Menlo Park2:17:59.90 368117  1315 
19 NICOLA DOWN   2:20:13.30  1928 
20 DANIELLE PETANCIC   2:27:38.36  1309 
21 JESSICA FIELDS   Temecula, CA2:29:45.78 183999  1298 
22 Katina Fischer   Camas, WA2:35:51.11 336306  2470 CAMAS BIKE AND SPORT
23 CARIN CAIN GUENSCH   2:38:40.22  1294 
24 WENDY ENGELBERG   Chatsworth, CA2:44:44.36 270070  1297 

Women - Cat 2 - Masters - 50-99

 Place Points NameCity, StateTime USAC #BibTeam
1 ANA WILLIAMSON   1:54:03.01  1329 
2 JANEL KAY LODGE   1:55:56.47  1324 
3 LAUREN LIDEN   Woodbridge, CA1:56:15.58 334762  1323 Michael David Winery Cycling Team
4 SHERI LARAMIE   2:01:20.01  1322 
5 TERI REILLY   2:06:21.26  1326 
6 JENNIFER HOLLIBAUGH   Morgan Hill, CA2:09:38.44 260469  2100 
7 JACKE VAN WOERKOM   2:16:34.90  1327 
8 CINDY BROWN   2:18:04.26  1330 
9 LYNNE PHILSON   2:19:12.10  1998 
10 BECKY BRAIN   Pleasant Hill, CA2:19:48.04 85634  1316 National Interscholastic Cycling Association (NICA)
11 GAIL A. HUGHES   2:34:02.43  1321 
12 KATHERINE FARAGO   Mesa, AZ2:37:38.75 141474  1318 Global Bikes Racing / Specialized
13 CHERYL PARRISH   2:41:11.26  1325 
14 DAPHNE HODGSON   Monterey, CA2:59:42.53 204580  1320 Velo Bella
15 LINDA DE YOUNG   3:17:32.48  1317 

Women - Cat 3 - Athena

 Place Points NameCity, StateTime USAC #BibTeam
1 ELLEN WILSON   Vacaville2:05:42.38 365823  1964 
2 CHRYSTAL LOGAN   2:33:39.89  1966 

Women - Cat 3 - Junior - 15-18

 Place Points NameCity, StateTime USAC #BibTeam
1 ASHLEY ALBOR   1:29:53.67  1890 
2 SARAH ROCKWOOD   1:31:45.49  1894 
3 MADISON GIGER   1:33:49.10  1892 
4 MARIE-CLAIRE SCHILLINGER   1:36:13.56  1895 
5 CHANTEL DULIBA   Salinas, CA1:37:40.66 368006  1256 
6 MAE PUCKETT   1:49:26.37  1893 
7 SAVVY BLAKE   1:53:07.02  1891 

Women - Cat 3 - Senior - 19-29

 Place Points NameCity, StateTime USAC #BibTeam
1 PAULINE FEYEREISN   1:37:40.99  1900 
2 ANDREA WAYTE   Springville, CA1:37:51.94 368043  1908 
3 KIRA DESCHAUX   Arcata, CA1:41:11.84 309064  1899 
4 ELEANORE BUSCH   1:41:54.91  1896 
5 ERIKA MITTERMAIER   Arcata, CA1:42:10.78 330768  1904 
6 KAYLA KAISER   1:42:20.66  1902 
7 JACQUELINE LIU   Santa Cruz, CA1:42:34.03 285417  1903 
8 STEPHANIE OH   1:44:43.71  1905 
9 ANDREA GAILO   1:48:39.02  1901 
10 SABINA SCHMID   1:57:33.69  2420 
11 JENNIFER CHANEY   1:58:06.18  1898 
12 JESSICA WALKER   Tucson, AZ1:59:37.30 297593  1907 
13 DIANA SMILJANIC   2:06:32.54  2082 
14 JULIE ROCKOW   2:07:22.12  2021 
15 ANGELA CASCHERA   2:15:51.10  1897 
16 JENNIFER MACNINCH   2:17:19.46  2496 

Women - Cat 3 - Masters - 30-39

 Place Points NameCity, StateTime USAC #BibTeam
1 MARAYA MORSE   Las Vegas, NV1:27:06.28 372881  1919 Team Las Vegas Cyclery
2 IRENA LOPEZ   1:27:40.05  1918 
3 ANYA THRASH   1:31:33.07  1922 
4 BREANNE LONG   1:35:08.74  1917 
5 HEATHER HAGEDORN   San Francisco, CA1:35:29.10 365697  2061 
6 AMALIA DEL ROSARIO   1:36:10.29  1912 
7 JENNY HERCE   1:54:14.95  1916 
8 KRISTIN FRANDSEN   Mill Valley, CA2:01:21.83 331336  1914 
9 JESSICA DOUGHERTY   Fishers2:03:32.39 379458  1913 
10 CRYSTAL REBER   Grass Valley, CA2:05:27.01 375362  1965 
11 BECKY CALE   2:06:10.96  1911 
12 LAURE BERLINE   2:37:24.89  1909 

Women - Cat 3 - Masters - 40-49

 Place Points NameCity, StateTime USAC #BibTeam
1 JENNY WALSH   Corte Madera, CA1:30:29.57 365813  1950 
2 JAYNE PETERLIN   San Ramon, CA1:35:59.96 228828  2037 DANVILLE BIKE
3 LISA BROWN   1:37:25.99  1924 
4 SUE GOSSARD   1:39:42.75  1974 
5 ANNA EYRE   1:41:35.35  1929 
6 MAXINE LAMPERTI   1:42:37.77  1937 
7 CORRINA BONOMO   1:42:37.99  1973 
8 MELISSA FELDER   1:43:07.43  1930 
9 TAMARA COULSON   1:45:22.74  1926 
10 ANDREA SHALES   1:46:07.31  1945 
11 JULIE ROHLOFF   Los Gatos, CA1:46:23.67 377403  1942 
12 SARAH LEWIS   San Diego, CA1:48:49.61 265938  1938 
13 LAUREL O'HALLORAN   1:56:33.38  1939 
14 JEN RUBINSTEIN   1:57:00.24  1943 
15 HOLLY ROBERTS   Sunnyvale, CA1:57:51.14 203177  1941 SJBC
16 LORI WALSH   San Jose, CA1:58:58.15 298981  2492 
17 JILL PURCELL   Mesa, AZ1:59:28.36 239414  1940 
18 SUSAN JAY   2:02:52.04  1934 
19 CHRISTINA SARIN   2:04:25.12  1944 
20 VANESSA HILL   2:04:36.55  1933 
21 VERONICA TORREZ   2:09:02.18  1948 
22 KELLY KNISS   2:09:30.58  1936 
23 CHRIS FIFER   2:09:32.42  1931 
24 MICHELLE RUSSELL   Sugarloaf, CA2:11:42.15 355604  2320 TEAM TOUGH CHIK
25 REBECCA CHOW   2:37:43.97  1925 
26 BRANDY KILKENNY   Dixon, CA3:00:42.13 269561  1935 Grass Roots Racing pb Velo Wrench
27 KAREN SMITH   3:35:31.00  1946 

Women - Cat 3 - Masters - 50-99

 Place Points NameCity, StateTime USAC #BibTeam
1 CHRISTY ALLEN   Mill Valley, CA1:34:21.75 378513  2033 
2 VANESSA BAUMANN   Alamo, CA1:39:17.13 271750  1952 Contra Costa Cycling Club
3 CARMEN LEON   1:40:13.84  1959 
4 LAURA MCCARTY   1:44:27.48  1961 
5 KIM HELGANS   Alamo, CA1:52:19.24 254920  1956 Kovarus/Wells Fargo Racing Team
6 KARIN LOTZ   1:53:30.62  1960 
7 JENNIFER CANNELLA   1:55:06.41  1954 
8 MICHELLE NIGHTENGALE   Modesto, CA1:59:48.93 290262  1962 Fun Sport Bikes Cycling Team
9 ADELE HO   2:00:29.95  1957 
10 NANCY KERREBROCK   2:02:02.54  1958 

Report missing or incorrect license numbers

Volkswagen
USACDFSpyBonk BreakerCUORESierra NevadaOSMOShimano
UCI USA Cycling is the official governing body for all disciplines of competitive cycling in the United States. The 501c3, membership-based organization aims both to achieve sustained success in international cycling competition and to grow competitive cycling in America while delivering an exceptional customer experience.
View Children's Online Privacy Protection Policy
US Olympic Committee